| time (UTC) | temp C | wind direction | speed KPH | gust KPH | rain 1hr cm | rain 24hr cm | rain mn cm | humidity % | barometer mb |
| 20260902200310 | 30 | 37 | 0.0 | 8.0 | 0.00 | 0.48 | 0.48 | 67 | 1011.4 |
| 20260902200148 | 30 | 38 | 0.0 | 8.0 | 0.00 | 0.48 | 0.48 | 65 | 1011.4 |
| 20260902200108 | 31 | 59 | 0.0 | 8.0 | 0.00 | 0.48 | 0.48 | 65 | 1011.4 |
| 20260902195909 | 31 | 34 | 0.0 | 8.0 | 0.00 | 0.48 | 0.48 | 69 | 1011.5 |
| 20260902195704 | 30 | 59 | 0.0 | 8.0 | 0.00 | 0.48 | 0.48 | 68 | 1011.6 |
| 20260902195648 | 30 | 61 | 0.0 | 8.0 | 0.00 | 0.48 | 0.48 | 68 | 1011.6 |
| 20260902195602 | 30 | 28 | 0.0 | 6.4 | 0.00 | 0.48 | 0.48 | 71 | 1011.6 |
| 20260902195306 | 30 | 49 | 0.0 | 6.4 | 0.00 | 0.48 | 0.48 | 71 | 1011.6 |
| 20260902195202 | 30 | 49 | 0.0 | 6.4 | 0.00 | 0.48 | 0.48 | 71 | 1011.7 |
| 20260902195148 | 30 | 49 | 0.0 | 6.4 | 0.00 | 0.48 | 0.48 | 72 | 1011.6 |
| 20260902194952 | 30 | 51 | 0.0 | 6.4 | 0.00 | 0.48 | 0.48 | 69 | 1011.8 |
| 20260902194939 | 30 | 51 | 0.0 | 6.4 | 0.00 | 0.48 | 0.48 | 67 | 1011.7 |
| 20260902194903 | 30 | 49 | 0.0 | 6.4 | 0.00 | 0.48 | 0.48 | 69 | 1011.7 |
| 20260902194504 | 30 | 52 | 0.0 | 6.4 | 0.00 | 0.48 | 0.48 | 66 | 1011.8 |
| 20260902194304 | 30 | 250 | 0.0 | 4.8 | 0.00 | 0.48 | 0.48 | 71 | 1011.8 |
| 20260902194203 | 30 | 250 | 0.0 | 4.8 | 0.00 | 0.48 | 0.48 | 71 | 1011.7 |
| 20260902194146 | 30 | 251 | 0.0 | 4.8 | 0.00 | 0.48 | 0.48 | 66 | 1011.7 |
| 20260902193905 | 30 | 189 | 0.0 | 4.8 | 0.00 | 0.48 | 0.48 | 68 | 1011.8 |
| 20260902193801 | 30 | 192 | 0.0 | 6.4 | 0.00 | 0.48 | 0.48 | 67 | 1011.8 |
| 20260902193645 | 30 | 192 | 0.0 | 6.4 | 0.00 | 0.48 | 0.48 | 67 | 1011.9 |
| 20260902193502 | 30 | 192 | 0.0 | 6.4 | 0.00 | 0.48 | 0.48 | 68 | 1012.0 |
| 20260902193304 | 30 | 192 | 0.0 | 6.4 | 0.00 | 0.48 | 0.48 | 66 | 1011.9 |
| 20260902193147 | 30 | 41 | 0.0 | 6.4 | 0.00 | 0.48 | 0.48 | 69 | 1012.0 |
| 20260902193102 | 30 | 39 | 0.0 | 6.4 | 0.00 | 0.48 | 0.48 | 68 | 1011.9 |
| 20260902192902 | 30 | 41 | 0.0 | 6.4 | 0.00 | 0.48 | 0.48 | 67 | 1011.9 |
| 20260902192800 | 30 | 41 | 0.0 | 6.4 | 0.00 | 0.48 | 0.48 | 65 | 1011.9 |
| 20260902192645 | 30 | 58 | 0.0 | 6.4 | 0.00 | 0.48 | 0.48 | 66 | 1011.9 |
| 20260902192502 | 30 | 59 | 0.0 | 6.4 | 0.00 | 0.48 | 0.48 | 69 | 1011.9 |
| 20260902192306 | 30 | 59 | 0.0 | 4.8 | 0.00 | 0.48 | 0.48 | 70 | 1011.9 |
| 20260902192145 | 30 | 138 | 0.0 | 4.8 | 0.00 | 0.48 | 0.48 | 66 | 1012.0 |
| 20260902192101 | 30 | 39 | 0.0 | 4.8 | 0.00 | 0.48 | 0.48 | 66 | 1012.0 |
| 20260902191958 | 30 | 47 | 0.0 | 4.8 | 0.00 | 0.48 | 0.48 | 70 | 1011.9 |
| 20260902191657 | 29 | 180 | 0.0 | 6.4 | 0.00 | 0.48 | 0.48 | 70 | 1011.9 |
| 20260902191645 | 29 | 179 | 0.0 | 6.4 | 0.00 | 0.48 | 0.48 | 70 | 1011.9 |
| 20260902191455 | 29 | 180 | 0.0 | 6.4 | 0.00 | 0.48 | 0.48 | 70 | 1011.9 |
| 20260902191359 | 28 | 179 | 0.0 | 6.4 | 0.00 | 0.48 | 0.48 | 71 | 1011.8 |
| 20260902191145 | 28 | 182 | 0.0 | 6.4 | 0.00 | 0.48 | 0.48 | 70 | 1011.9 |
| 20260902191054 | 28 | 180 | 0.0 | 6.4 | 0.00 | 0.48 | 0.48 | 71 | 1011.9 |
| 20260902190854 | 28 | 179 | 0.0 | 6.4 | 0.00 | 0.48 | 0.48 | 70 | 1011.9 |
| 20260902190654 | 28 | 179 | 0.0 | 6.4 | 0.00 | 0.48 | 0.48 | 68 | 1011.9 |
| 20260902190645 | 28 | 178 | 0.0 | 6.4 | 0.00 | 0.48 | 0.48 | 68 | 1011.9 |
| 20260902190555 | 29 | 179 | 0.0 | 6.4 | 0.00 | 0.48 | 0.48 | 68 | 1012.0 |
| 20260902190252 | 29 | 117 | 0.0 | 8.0 | 0.00 | 0.48 | 0.48 | 69 | 1011.9 |
| 20260902190146 | 29 | 117 | 0.0 | 9.7 | 0.00 | 0.48 | 0.48 | 68 | 1011.9 |
| 20260902190052 | 29 | 169 | 0.0 | 9.7 | 0.00 | 0.48 | 0.48 | 66 | 1011.9 |
| 20260902185952 | 29 | 38 | 0.0 | 9.7 | 0.00 | 0.48 | 0.48 | 70 | 1011.9 |
| 20260902185654 | 29 | 38 | 0.0 | 9.7 | 0.00 | 0.48 | 0.48 | 70 | 1011.9 |
| 20260902185645 | 29 | 39 | 0.0 | 9.7 | 0.00 | 0.48 | 0.48 | 70 | 1011.9 |
| 20260902185451 | 29 | 37 | 0.0 | 9.7 | 0.00 | 0.48 | 0.48 | 71 | 1012.0 |
| 20260902185248 | 29 | 10 | 0.0 | 8.0 | 0.00 | 0.48 | 0.48 | 74 | 1011.8 |
| 20260902185152 | 29 | 38 | 0.0 | 8.0 | 0.00 | 0.48 | 0.48 | 71 | 1011.9 |
| 20260902185145 | 29 | 4 | 0.0 | 8.0 | 0.00 | 0.48 | 0.48 | 68 | 1011.9 |
| 20260902184847 | 29 | 58 | 0.0 | 8.0 | 0.00 | 0.48 | 0.48 | 71 | 1012.0 |
| 20260902184645 | 29 | 58 | 0.0 | 8.0 | 0.00 | 0.48 | 0.48 | 70 | 1012.1 |
| 20260902184550 | 28 | 148 | 0.0 | 6.4 | 0.00 | 0.48 | 0.48 | 71 | 1012.1 |
| 20260902184251 | 28 | 148 | 0.0 | 6.4 | 0.00 | 0.48 | 0.48 | 71 | 1012.2 |
| 20260902184148 | 28 | 148 | 0.0 | 6.4 | 0.00 | 0.48 | 0.48 | 71 | 1012.2 |
| 20260902184048 | 28 | 148 | 0.0 | 6.4 | 0.00 | 0.48 | 0.48 | 69 | 1012.1 |
| 20260902183849 | 29 | 148 | 0.0 | 6.4 | 0.00 | 0.48 | 0.48 | 70 | 1012.1 |
| 20260902183649 | 28 | 128 | 0.0 | 4.8 | 0.00 | 0.48 | 0.48 | 69 | 1012.1 |
| 20260902183447 | 29 | 125 | 0.0 | 4.8 | 0.00 | 0.48 | 0.48 | 72 | 1012.2 |
| 20260902183248 | 29 | 90 | 0.0 | 4.8 | 0.00 | 0.48 | 0.48 | 71 | 1012.1 |
| 20260902183148 | 28 | 69 | 0.0 | 4.8 | 0.00 | 0.48 | 0.48 | 69 | 1012.1 |
| 20260902183053 | 28 | 59 | 0.0 | 6.4 | 0.00 | 0.48 | 0.48 | 70 | 1012.2 |
| 20260902183047 | 29 | 78 | 0.0 | 4.8 | 0.00 | 0.48 | 0.48 | 70 | 1012.1 |
| 20260902182648 | 28 | 41 | 0.0 | 6.4 | 0.00 | 0.48 | 0.48 | 71 | 1012.1 |
| 20260902182450 | 28 | 159 | 0.0 | 6.4 | 0.00 | 0.48 | 0.48 | 70 | 1012.1 |
| 20260902182443 | 29 | 151 | 0.0 | 6.4 | 0.00 | 0.48 | 0.48 | 70 | 1012.2 |
| 20260902182413 | 29 | 158 | 0.0 | 6.4 | 0.00 | 0.48 | 0.48 | 67 | 1012.2 |
| 20260902182046 | 29 | 41 | 0.0 | 6.4 | 0.00 | 0.48 | 0.48 | 67 | 1012.2 |
| 20260902181847 | 29 | 35 | 0.0 | 4.8 | 0.00 | 0.48 | 0.48 | 71 | 1012.1 |
| 20260902181659 | 28 | 38 | 0.0 | 8.0 | 0.00 | 0.48 | 0.48 | 71 | 1012.2 |
| 20260902181648 | 29 | 38 | 0.0 | 4.8 | 0.00 | 0.48 | 0.48 | 74 | 1012.2 |
| 20260902181249 | 28 | 37 | 0.0 | 8.0 | 0.00 | 0.48 | 0.48 | 71 | 1012.2 |
| 20260902181148 | 28 | 38 | 0.0 | 8.0 | 0.00 | 0.48 | 0.48 | 69 | 1012.2 |
| 20260902181046 | 28 | 38 | 0.0 | 8.0 | 0.00 | 0.48 | 0.48 | 69 | 1012.1 |
| 20260902180846 | 28 | 52 | 0.0 | 8.0 | 0.00 | 0.48 | 0.48 | 70 | 1012.2 |
| 20260902180648 | 28 | 51 | 0.0 | 8.0 | 0.00 | 0.48 | 0.48 | 73 | 1012.2 |
| 20260902180447 | 28 | 39 | 0.0 | 9.7 | 0.00 | 0.48 | 0.48 | 70 | 1012.3 |
| 20260902180249 | 28 | 39 | 0.0 | 9.7 | 0.00 | 0.48 | 0.48 | 73 | 1012.4 |
| 20260902180148 | 28 | 42 | 0.0 | 9.7 | 0.00 | 0.48 | 0.48 | 71 | 1012.4 |
| 20260902180049 | 28 | 87 | 0.0 | 9.7 | 0.00 | 0.48 | 0.48 | 72 | 1012.4 |
| 20260902175947 | 28 | 34 | 0.0 | 9.7 | 0.00 | 0.48 | 0.48 | 73 | 1012.5 |
| 20260902175752 | 28 | 56 | 0.0 | 9.7 | 0.00 | 0.48 | 0.48 | 72 | 1012.5 |
| 20260902175649 | 28 | 56 | 0.0 | 9.7 | 0.00 | 0.48 | 0.48 | 72 | 1012.5 |
| 20260902175447 | 28 | 11 | 0.0 | 6.4 | 0.00 | 0.48 | 0.48 | 71 | 1012.4 |
| 20260902175248 | 28 | 147 | 0.0 | 6.4 | 0.00 | 0.48 | 0.48 | 75 | 1012.5 |
| 20260902175155 | 28 | 145 | 0.0 | 6.4 | 0.00 | 0.48 | 0.48 | 72 | 1012.5 |
| 20260902175048 | 28 | 147 | 0.0 | 6.4 | 0.00 | 0.48 | 0.48 | 74 | 1012.6 |
| 20260902174846 | 28 | 34 | 0.0 | 9.7 | 0.00 | 0.48 | 0.48 | 72 | 1012.5 |
| 20260902174651 | 28 | 34 | 0.0 | 9.7 | 0.00 | 0.48 | 0.48 | 71 | 1012.5 |
| 20260902174543 | 28 | 27 | 0.0 | 9.7 | 0.00 | 0.48 | 0.48 | 74 | 1012.4 |
| 20260902174347 | 28 | 37 | 0.0 | 9.7 | 0.00 | 0.48 | 0.48 | 73 | 1012.5 |
| 20260902174148 | 28 | 37 | 0.0 | 9.7 | 0.00 | 0.48 | 0.48 | 72 | 1012.4 |
| 20260902174048 | 28 | 48 | 0.0 | 9.7 | 0.00 | 0.48 | 0.48 | 74 | 1012.5 |
| 20260902173847 | 27 | 158 | 0.0 | 4.8 | 0.00 | 0.48 | 0.48 | 74 | 1012.6 |
| 20260902173650 | 27 | 158 | 0.0 | 8.0 | 0.00 | 0.48 | 0.48 | 70 | 1012.7 |
| 20260902173510 | 27 | 37 | 0.0 | 8.0 | 0.00 | 0.48 | 0.48 | 77 | 1012.8 |
| 20260902173501 | 28 | 42 | 0.0 | 8.0 | 0.00 | 0.48 | 0.48 | 72 | 1012.8 |
| 20260902173423 | 28 | 37 | 0.0 | 8.0 | 0.00 | 0.48 | 0.48 | 77 | 1012.8 |
| 20260902173140 | 27 | 37 | 0.0 | 8.0 | 0.00 | 0.48 | 0.48 | 73 | 1012.8 |
| 20260902172942 | 27 | 37 | 0.0 | 8.0 | 0.00 | 0.48 | 0.48 | 74 | 1012.8 |
| 20260902172640 | 27 | 51 | 0.0 | 8.0 | 0.00 | 0.48 | 0.48 | 72 | 1012.9 |
| 20260902172453 | 27 | 38 | 0.0 | 8.0 | 0.00 | 0.48 | 0.48 | 74 | 1013.0 |
| 20260902172444 | 27 | 51 | 0.0 | 8.0 | 0.00 | 0.48 | 0.48 | 73 | 1012.9 |
| 20260902172412 | 27 | 51 | 0.0 | 8.0 | 0.00 | 0.48 | 0.48 | 73 | 1013.0 |
| 20260902172041 | 27 | 62 | 0.0 | 8.0 | 0.00 | 0.48 | 0.48 | 75 | 1013.1 |
| 20260902171939 | 27 | 56 | 0.0 | 0.0 | 0.00 | 0.48 | 0.48 | 75 | 1013.0 |
| 20260902171648 | 27 | 62 | 0.0 | 0.0 | 0.00 | 0.48 | 0.48 | 75 | 1013.0 |
| 20260902171636 | 27 | 63 | 0.0 | 0.0 | 0.00 | 0.48 | 0.48 | 75 | 1013.1 |
| 20260902171539 | 27 | 199 | 0.0 | 0.0 | 0.00 | 0.48 | 0.48 | 79 | 1013.1 |
| 20260902171448 | 27 | 199 | 0.0 | 0.0 | 0.00 | 0.48 | 0.48 | 75 | 1013.2 |
| 20260902171411 | 27 | 199 | 0.0 | 0.0 | 0.00 | 0.48 | 0.48 | 77 | 1013.2 |
| 20260902171035 | 27 | 199 | 0.0 | 0.0 | 0.00 | 0.48 | 0.48 | 76 | 1013.2 |
| 20260902170834 | 26 | 200 | 0.0 | 0.0 | 0.00 | 0.48 | 0.48 | 77 | 1013.3 |
| 20260902170654 | 26 | 199 | 0.0 | 0.0 | 0.00 | 0.48 | 0.48 | 76 | 1013.3 |
| 20260902170636 | 26 | 199 | 0.0 | 0.0 | 0.00 | 0.48 | 0.48 | 76 | 1013.4 |
| 20260902170557 | 26 | 200 | 0.0 | 0.0 | 0.00 | 0.48 | 0.48 | 76 | 1013.3 |
| 20260902170509 | 26 | 200 | 0.0 | 0.0 | 0.00 | 0.48 | 0.48 | 77 | 1013.4 |
| 20260902170420 | 26 | 200 | 0.0 | 0.0 | 0.00 | 0.48 | 0.48 | 77 | 1013.4 |
| 20260902170107 | 26 | 200 | 0.0 | 1.6 | 0.00 | 0.48 | 0.48 | 78 | 1013.6 |
| 20260902165809 | 26 | 200 | 0.0 | 1.6 | 0.00 | 0.48 | 0.48 | 76 | 1013.6 |
| 20260902165647 | 26 | 200 | 0.0 | 1.6 | 0.00 | 0.48 | 0.48 | 76 | 1013.5 |
| 20260902165609 | 26 | 202 | 0.0 | 1.6 | 0.00 | 0.48 | 0.48 | 79 | 1013.5 |
| 20260902165449 | 26 | 200 | 0.0 | 1.6 | 0.00 | 0.48 | 0.48 | 76 | 1013.5 |
| 20260902165437 | 26 | 200 | 0.0 | 1.6 | 0.00 | 0.48 | 0.48 | 79 | 1013.5 |
| 20260902165403 | 26 | 200 | 0.0 | 1.6 | 0.00 | 0.48 | 0.48 | 76 | 1013.5 |
| 20260902165112 | 26 | 195 | 0.0 | 0.0 | 0.00 | 0.48 | 0.48 | 78 | 1013.4 |
| 20260902164803 | 25 | 193 | 0.0 | 0.0 | 0.00 | 0.48 | 0.48 | 77 | 1013.4 |
| 20260902164700 | 25 | 192 | 0.0 | 0.0 | 0.00 | 0.48 | 0.48 | 77 | 1013.3 |
| 20260902164644 | 25 | 193 | 0.0 | 0.0 | 0.00 | 0.48 | 0.48 | 78 | 1013.3 |
| 20260902164442 | 26 | 42 | 0.0 | 0.0 | 0.00 | 0.48 | 0.48 | 77 | 1013.3 |
| 20260902164429 | 26 | 197 | 0.0 | 0.0 | 0.00 | 0.48 | 0.48 | 77 | 1013.5 |
| 20260902164357 | 26 | 42 | 0.0 | 0.0 | 0.00 | 0.48 | 0.48 | 77 | 1013.3 |
| 20260902163959 | 26 | 41 | 0.0 | 0.0 | 0.00 | 0.48 | 0.48 | 76 | 1013.2 |
| 20260902163759 | 26 | 21 | 0.0 | 0.0 | 0.00 | 0.48 | 0.48 | 76 | 1013.2 |
| 20260902163647 | 26 | 17 | 0.0 | 0.0 | 0.00 | 0.48 | 0.48 | 78 | 1013.2 |
| 20260902163557 | 26 | 16 | 0.0 | 0.0 | 0.00 | 0.48 | 0.48 | 78 | 1013.2 |
| 20260902163444 | 26 | 41 | 0.0 | 0.0 | 0.00 | 0.48 | 0.48 | 79 | 1013.1 |
| 20260902163430 | 26 | 16 | 0.0 | 0.0 | 0.00 | 0.48 | 0.48 | 80 | 1013.2 |
| 20260902163359 | 26 | 42 | 0.0 | 0.0 | 0.00 | 0.48 | 0.48 | 79 | 1013.1 |
| 20260902162957 | 26 | 38 | 0.0 | 0.0 | 0.00 | 0.48 | 0.48 | 80 | 1013.1 |
| 20260902162857 | 25 | 45 | 0.0 | 0.0 | 0.00 | 0.48 | 0.48 | 79 | 1013.1 |
| 20260902162657 | 25 | 54 | 0.0 | 0.0 | 0.00 | 0.48 | 0.48 | 79 | 1013.1 |
| 20260902162645 | 25 | 47 | 0.0 | 0.0 | 0.00 | 0.48 | 0.48 | 79 | 1013.1 |
| 20260902162357 | 25 | 21 | 0.0 | 0.0 | 0.00 | 0.48 | 0.48 | 78 | 1013.1 |
| 20260902162155 | 25 | 42 | 0.0 | 0.0 | 0.00 | 0.48 | 0.48 | 80 | 1013.1 |
| 20260902162136 | 26 | 42 | 0.0 | 0.0 | 0.00 | 0.48 | 0.48 | 80 | 1013.1 |
| 20260902161954 | 25 | 38 | 0.0 | 0.0 | 0.00 | 0.48 | 0.48 | 79 | 1013.1 |
| 20260902161755 | 25 | 37 | 0.0 | 0.0 | 0.00 | 0.48 | 0.48 | 79 | 1013.1 |
| 20260902161636 | 25 | 38 | 0.0 | 0.0 | 0.00 | 0.48 | 0.48 | 78 | 1013.1 |
| 20260902161551 | 25 | 39 | 0.0 | 0.0 | 0.00 | 0.48 | 0.48 | 79 | 1013.1 |
| 20260902161449 | 25 | 38 | 0.0 | 0.0 | 0.00 | 0.48 | 0.48 | 80 | 1013.0 |
| 20260902161259 | 25 | 37 | 0.0 | 0.0 | 0.00 | 0.48 | 0.48 | 79 | 1013.0 |
| 20260902161133 | 25 | 34 | 0.0 | 0.0 | 0.00 | 0.48 | 0.48 | 79 | 1013.1 |
| 20260902160950 | 25 | 39 | 0.0 | 0.0 | 0.00 | 0.48 | 0.48 | 80 | 1013.1 |
| 20260902160749 | 25 | 38 | 0.0 | 0.0 | 0.00 | 0.48 | 0.48 | 80 | 1013.1 |
| 20260902160634 | 25 | 71 | 0.0 | 0.0 | 0.00 | 0.48 | 0.48 | 79 | 1013.1 |
| 20260902160549 | 25 | 80 | 0.0 | 0.0 | 0.00 | 0.48 | 0.48 | 80 | 1013.1 |
| 20260902160348 | 25 | 1 | 0.0 | 3.2 | 0.00 | 0.48 | 0.48 | 78 | 1013.0 |
| 20260902160148 | 25 | 200 | 0.0 | 6.4 | 0.00 | 0.48 | 0.48 | 77 | 1012.9 |
| 20260902160132 | 25 | 199 | 0.0 | 6.4 | 0.00 | 0.48 | 0.48 | 77 | 1013.0 |
| 20260902160049 | 25 | 199 | 0.0 | 6.4 | 0.00 | 0.48 | 0.48 | 77 | 1013.0 |
| 20260902155747 | 26 | 168 | 0.0 | 8.0 | 0.00 | 0.48 | 0.48 | 75 | 1013.0 |
| 20260902155631 | 26 | 113 | 0.0 | 8.0 | 0.00 | 0.48 | 0.48 | 76 | 1013.0 |
| 20260902155548 | 26 | 114 | 0.0 | 8.0 | 0.00 | 0.48 | 0.48 | 77 | 1013.0 |
| 20260902155346 | 26 | 149 | 0.0 | 8.0 | 0.00 | 0.48 | 0.48 | 76 | 1013.0 |
| 20260902155242 | 26 | 42 | 0.0 | 8.0 | 0.00 | 0.48 | 0.48 | 76 | 1013.0 |
| 20260902155131 | 26 | 42 | 0.0 | 8.0 | 0.00 | 0.48 | 0.48 | 78 | 1012.9 |
| 20260902154945 | 26 | 59 | 0.0 | 8.0 | 0.00 | 0.48 | 0.48 | 79 | 1012.9 |
| 20260902154844 | 25 | 16 | 0.0 | 0.0 | 0.00 | 0.48 | 0.48 | 77 | 1012.8 |
| 20260902154633 | 25 | 30 | 0.0 | 0.0 | 0.00 | 0.48 | 0.48 | 78 | 1012.7 |
| 20260902154544 | 25 | 28 | 0.0 | 0.0 | 0.00 | 0.48 | 0.48 | 80 | 1012.7 |
| 20260902154346 | 25 | 18 | 0.0 | 0.0 | 0.00 | 0.48 | 0.48 | 79 | 1012.6 |
| 20260902154144 | 25 | 1 | 0.0 | 0.0 | 0.00 | 0.48 | 0.48 | 79 | 1012.7 |
| 20260902154132 | 25 | 0 | 0.0 | 0.0 | 0.00 | 0.48 | 0.48 | 79 | 1012.7 |
| 20260902153956 | 25 | 56 | 0.0 | 0.0 | 0.00 | 0.48 | 0.48 | 79 | 1012.7 |
| 20260902153945 | 25 | 38 | 0.0 | 0.0 | 0.00 | 0.48 | 0.48 | 80 | 1012.7 |
| 20260902153917 | 25 | 63 | 0.0 | 0.0 | 0.00 | 0.48 | 0.48 | 78 | 1012.7 |
| 20260902153546 | 25 | 44 | 0.0 | 0.0 | 0.00 | 0.48 | 0.48 | 78 | 1012.7 |
| 20260902153444 | 25 | 62 | 0.0 | 0.0 | 0.00 | 0.48 | 0.48 | 79 | 1012.7 |
| 20260902153130 | 25 | 39 | 0.0 | 0.0 | 0.00 | 0.48 | 0.48 | 80 | 1012.7 |
| 20260902152945 | 25 | 38 | 0.0 | 0.0 | 0.00 | 0.48 | 0.48 | 79 | 1012.7 |
| 20260902152744 | 25 | 78 | 0.0 | 0.0 | 0.00 | 0.48 | 0.48 | 78 | 1012.8 |
| 20260902152629 | 25 | 69 | 0.0 | 0.0 | 0.00 | 0.48 | 0.48 | 78 | 1012.8 |
| 20260902152545 | 25 | 141 | 0.0 | 0.0 | 0.00 | 0.48 | 0.48 | 80 | 1012.8 |
| 20260902152442 | 25 | 51 | 0.0 | 0.0 | 0.00 | 0.48 | 0.48 | 82 | 1012.8 |
| 20260902152147 | 25 | 51 | 0.0 | 0.0 | 0.00 | 0.48 | 0.48 | 81 | 1012.7 |
| 20260902152129 | 25 | 52 | 0.0 | 0.0 | 0.00 | 0.48 | 0.48 | 82 | 1012.7 |
| 20260902152047 | 25 | 28 | 0.0 | 0.0 | 0.00 | 0.48 | 0.48 | 82 | 1012.8 |
| 20260902151747 | 24 | 24 | 0.0 | 0.0 | 0.00 | 0.48 | 0.48 | 82 | 1012.6 |
| 20260902151628 | 24 | 42 | 0.0 | 0.0 | 0.00 | 0.48 | 0.48 | 82 | 1012.6 |
| 20260902151533 | 24 | 51 | 0.0 | 0.0 | 0.00 | 0.48 | 0.48 | 83 | 1012.6 |
| 20260902151336 | 24 | 32 | 0.0 | 0.0 | 0.00 | 0.48 | 0.48 | 84 | 1012.6 |
| 20260902151236 | 24 | 35 | 0.0 | 0.0 | 0.00 | 0.48 | 0.48 | 81 | 1012.5 |
| 20260902151128 | 24 | 35 | 0.0 | 0.0 | 0.00 | 0.48 | 0.48 | 81 | 1012.5 |
| 20260902150934 | 24 | 48 | 0.0 | 0.0 | 0.00 | 0.48 | 0.48 | 81 | 1012.6 |
| 20260902150833 | 24 | 23 | 0.0 | 0.0 | 0.00 | 0.48 | 0.48 | 82 | 1012.5 |
| 20260902150632 | 24 | 39 | 0.0 | 0.0 | 0.00 | 0.48 | 0.48 | 83 | 1012.6 |
| 20260902150533 | 24 | 37 | 0.0 | 0.0 | 0.00 | 0.48 | 0.48 | 83 | 1012.6 |
| 20260902150330 | 24 | 48 | 0.0 | 0.0 | 0.00 | 0.48 | 0.48 | 83 | 1012.6 |
| 20260902150126 | 23 | 61 | 0.0 | 0.0 | 0.00 | 0.48 | 0.48 | 83 | 1012.6 |
| 20260902145929 | 23 | 37 | 0.0 | 0.0 | 0.00 | 0.48 | 0.48 | 82 | 1012.6 |
| 20260902145825 | 23 | 34 | 0.0 | 0.0 | 0.00 | 0.48 | 0.48 | 83 | 1012.7 |
| 20260902145628 | 23 | 35 | 0.0 | 0.0 | 0.00 | 0.48 | 0.48 | 83 | 1012.7 |
| 20260902145528 | 23 | 49 | 0.0 | 0.0 | 0.00 | 0.48 | 0.48 | 83 | 1012.7 |
| 20260902145507 | 23 | 25 | 0.0 | 0.0 | 0.00 | 0.48 | 0.48 | 82 | 1012.6 |
| 20260902145420 | 23 | 151 | 0.0 | 0.0 | 0.00 | 0.48 | 0.48 | 82 | 1012.7 |
| 20260902145339 | 23 | 151 | 0.0 | 0.0 | 0.00 | 0.48 | 0.48 | 82 | 1012.7 |
| 20260902144924 | 23 | 148 | 0.0 | 0.0 | 0.00 | 0.48 | 0.48 | 82 | 1012.8 |
| 20260902144727 | 23 | 149 | 0.0 | 0.0 | 0.00 | 0.48 | 0.48 | 82 | 1012.7 |
| 20260902144623 | 23 | 149 | 0.0 | 0.0 | 0.00 | 0.48 | 0.48 | 82 | 1012.8 |
| 20260902144523 | 23 | 151 | 0.0 | 0.0 | 0.00 | 0.48 | 0.48 | 83 | 1012.6 |
| 20260902144503 | 23 | 47 | 0.0 | 0.0 | 0.00 | 0.48 | 0.48 | 84 | 1012.7 |
| 20260902144414 | 23 | 56 | 0.0 | 0.0 | 0.00 | 0.48 | 0.48 | 85 | 1012.5 |
| 20260902144335 | 23 | 56 | 0.0 | 0.0 | 0.00 | 0.48 | 0.48 | 85 | 1012.5 |
| 20260902143907 | 23 | 54 | 0.0 | 0.0 | 0.00 | 0.48 | 0.48 | 85 | 1012.6 |
| 20260902143706 | 23 | 44 | 0.0 | 0.0 | 0.00 | 0.48 | 0.48 | 85 | 1012.6 |
| 20260902143623 | 23 | 55 | 0.0 | 0.0 | 0.00 | 0.48 | 0.48 | 85 | 1012.7 |
| 20260902143616 | 23 | 44 | 0.0 | 0.0 | 0.00 | 0.48 | 0.48 | 85 | 1012.6 |
| 20260902143357 | 22 | 52 | 0.0 | 0.0 | 0.00 | 0.48 | 0.48 | 86 | 1012.7 |
| 20260902143344 | 23 | 56 | 0.0 | 0.0 | 0.00 | 0.48 | 0.48 | 85 | 1012.7 |
| 20260902143105 | 22 | 52 | 0.0 | 0.0 | 0.00 | 0.48 | 0.48 | 86 | 1012.7 |
| 20260902142858 | 22 | 38 | 0.0 | 0.0 | 0.00 | 0.48 | 0.48 | 86 | 1012.7 |
| 20260902142756 | 22 | 38 | 0.0 | 0.0 | 0.00 | 0.48 | 0.48 | 86 | 1012.8 |
| 20260902142606 | 22 | 35 | 0.0 | 0.0 | 0.00 | 0.48 | 0.48 | 87 | 1012.8 |
| 20260902142454 | 22 | 47 | 0.0 | 0.0 | 0.00 | 0.48 | 0.48 | 87 | 1012.8 |
| 20260902142253 | 22 | 25 | 0.0 | 0.0 | 0.00 | 0.48 | 0.48 | 87 | 1012.8 |
| 20260902142145 | 22 | 24 | 0.0 | 0.0 | 0.00 | 0.48 | 0.48 | 87 | 1012.8 |
| 20260902142104 | 22 | 25 | 0.0 | 0.0 | 0.00 | 0.48 | 0.48 | 87 | 1012.8 |
| 20260902141847 | 22 | 25 | 0.0 | 0.0 | 0.00 | 0.48 | 0.48 | 88 | 1012.9 |
| 20260902141648 | 22 | 34 | 0.0 | 0.0 | 0.00 | 0.48 | 0.48 | 88 | 1012.9 |
| 20260902141604 | 22 | 32 | 0.0 | 0.0 | 0.00 | 0.48 | 0.48 | 89 | 1012.9 |
| 20260902141448 | 22 | 31 | 0.0 | 0.0 | 0.00 | 0.48 | 0.48 | 89 | 1013.0 |
| 20260902141348 | 22 | 32 | 0.0 | 0.0 | 0.00 | 0.48 | 0.48 | 90 | 1013.0 |
| 20260902141104 | 22 | 18 | 0.0 | 0.0 | 0.00 | 0.48 | 0.48 | 90 | 1013.0 |
| 20260902141047 | 22 | 20 | 0.0 | 0.0 | 0.00 | 0.48 | 0.48 | 90 | 1013.0 |
| 20260902140845 | 22 | 17 | 0.0 | 0.0 | 0.00 | 0.48 | 0.48 | 90 | 1013.0 |
| 20260902140741 | 21 | 6 | 0.0 | 0.0 | 0.00 | 0.48 | 0.48 | 91 | 1013.0 |
| 20260902140605 | 21 | 24 | 0.0 | 0.0 | 0.00 | 0.48 | 0.48 | 91 | 1012.9 |
| 20260902140443 | 21 | 34 | 0.0 | 0.0 | 0.00 | 0.48 | 0.48 | 92 | 1013.0 |
| 20260902140233 | 21 | 11 | 0.0 | 0.0 | 0.00 | 0.48 | 0.48 | 92 | 1013.0 |
| 20260902140108 | 21 | 10 | 0.0 | 0.0 | 0.00 | 0.48 | 0.48 | 92 | 1013.0 |
| 20260902140033 | 21 | 11 | 0.0 | 0.0 | 0.00 | 0.48 | 0.48 | 92 | 1013.0 |
| 20260902135930 | 21 | 11 | 0.0 | 0.0 | 0.00 | 0.48 | 0.48 | 92 | 1013.0 |
| 20260902135632 | 21 | 10 | 0.0 | 0.0 | 0.00 | 0.48 | 0.48 | 92 | 1013.0 |
| 20260902135601 | 21 | 10 | 0.0 | 0.0 | 0.00 | 0.48 | 0.48 | 92 | 1013.0 |
| 20260902135431 | 21 | 4 | 0.0 | 0.0 | 0.00 | 0.48 | 0.48 | 93 | 1012.9 |
| 20260902135328 | 21 | 35 | 0.0 | 0.0 | 0.00 | 0.48 | 0.48 | 93 | 1012.9 |
| 20260902135101 | 21 | 45 | 0.0 | 0.0 | 0.00 | 0.48 | 0.48 | 93 | 1012.9 |
| 20260902135030 | 21 | 0 | 0.0 | 0.0 | 0.00 | 0.48 | 0.48 | 93 | 1013.0 |
| 20260902134928 | 21 | 0 | 0.0 | 0.0 | 0.00 | 0.48 | 0.48 | 94 | 1012.9 |
| 20260902134631 | 21 | 37 | 0.0 | 0.0 | 0.00 | 0.48 | 0.48 | 95 | 1012.8 |
| 20260902134600 | 21 | 38 | 0.0 | 0.0 | 0.00 | 0.48 | 0.48 | 95 | 1012.8 |
| 20260902134433 | 21 | 34 | 0.0 | 0.0 | 0.00 | 0.48 | 0.48 | 95 | 1012.8 |
| 20260902134236 | 21 | 1 | 0.0 | 0.0 | 0.00 | 0.48 | 0.48 | 96 | 1012.8 |
| 20260902134100 | 21 | 23 | 0.0 | 0.0 | 0.00 | 0.48 | 0.48 | 96 | 1012.8 |
| 20260902134015 | 21 | 48 | 0.0 | 0.0 | 0.00 | 0.48 | 0.48 | 97 | 1012.8 |
| 20260902133944 | 20 | 47 | 0.0 | 0.0 | 0.00 | 0.48 | 0.48 | 96 | 1012.9 |
| 20260902133851 | 20 | 38 | 0.0 | 0.0 | 0.00 | 0.48 | 0.48 | 97 | 1012.9 |
| 20260902133813 | 20 | 38 | 0.0 | 0.0 | 0.00 | 0.48 | 0.48 | 97 | 1012.9 |
| 20260902133502 | 20 | 30 | 0.0 | 0.0 | 0.00 | 0.48 | 0.48 | 97 | 1012.9 |
| 20260902133202 | 20 | 20 | 0.0 | 0.0 | 0.00 | 0.48 | 0.48 | 96 | 1012.9 |
| 20260902133101 | 20 | 20 | 0.0 | 0.0 | 0.00 | 0.48 | 0.48 | 96 | 1012.9 |
| 20260902133002 | 20 | 20 | 0.0 | 0.0 | 0.00 | 0.48 | 0.48 | 96 | 1012.9 |
| 20260902132806 | 20 | 18 | 0.0 | 0.0 | 0.00 | 0.48 | 0.48 | 97 | 1012.9 |
| 20260902132608 | 20 | 20 | 0.0 | 0.0 | 0.00 | 0.48 | 0.48 | 97 | 1012.9 |
| 20260902132559 | 20 | 18 | 0.0 | 0.0 | 0.00 | 0.48 | 0.48 | 97 | 1012.9 |
| 20260902132441 | 20 | 17 | 0.0 | 0.0 | 0.00 | 0.48 | 0.48 | 97 | 1012.9 |
| 20260902132147 | 20 | 18 | 0.0 | 0.0 | 0.00 | 0.48 | 0.48 | 97 | 1012.8 |
| 20260902132102 | 20 | 20 | 0.0 | 0.0 | 0.00 | 0.48 | 0.48 | 97 | 1012.8 |
| 20260902132041 | 20 | 20 | 0.0 | 0.0 | 0.00 | 0.48 | 0.48 | 97 | 1012.8 |
| 20260902131747 | 20 | 18 | 0.0 | 0.0 | 0.00 | 0.48 | 0.48 | 97 | 1012.8 |
| 20260902131603 | 20 | 18 | 0.0 | 0.0 | 0.00 | 0.48 | 0.48 | 97 | 1012.7 |
| 20260902131531 | 20 | 18 | 0.0 | 0.0 | 0.00 | 0.48 | 0.48 | 97 | 1012.8 |
| 20260902131429 | 20 | 18 | 0.0 | 0.0 | 0.00 | 0.48 | 0.48 | 97 | 1012.8 |
| 20260902131131 | 19 | 17 | 0.0 | 0.0 | 0.00 | 0.48 | 0.48 | 97 | 1012.8 |
| 20260902131100 | 19 | 20 | 0.0 | 0.0 | 0.00 | 0.48 | 0.48 | 97 | 1012.8 |
| 20260902131036 | 19 | 18 | 0.0 | 0.0 | 0.00 | 0.48 | 0.48 | 97 | 1012.9 |
| 20260902130734 | 19 | 17 | 0.0 | 0.0 | 0.00 | 0.48 | 0.48 | 97 | 1013.0 |
| 20260902130601 | 19 | 17 | 0.0 | 0.0 | 0.00 | 0.48 | 0.48 | 97 | 1012.9 |
| 20260902130503 | 19 | 18 | 0.0 | 0.0 | 0.00 | 0.48 | 0.48 | 97 | 1013.0 |
| 20260902130303 | 18 | 18 | 0.0 | 0.0 | 0.00 | 0.48 | 0.48 | 97 | 1012.9 |
| 20260902130002 | 18 | 18 | 0.0 | 0.0 | 0.00 | 0.48 | 0.48 | 97 | 1012.9 |
| 20260902125900 | 18 | 17 | 0.0 | 0.0 | 0.00 | 0.48 | 0.48 | 97 | 1012.9 |
| 20260902125855 | 18 | 17 | 0.0 | 0.0 | 0.00 | 0.48 | 0.48 | 97 | 1012.9 |
| 20260902125829 | 18 | 17 | 0.0 | 0.0 | 0.00 | 0.48 | 0.48 | 97 | 1013.0 |
| 20260902125305 | 18 | 17 | 0.0 | 0.0 | 0.00 | 0.48 | 0.48 | 97 | 1012.8 |
| 20260902125101 | 18 | 17 | 0.0 | 0.0 | 0.00 | 0.48 | 0.48 | 97 | 1012.7 |
| 20260902124904 | 18 | 18 | 0.0 | 1.6 | 0.00 | 0.48 | 0.48 | 97 | 1012.8 |
| 20260902124647 | 18 | 17 | 0.0 | 4.8 | 0.00 | 0.48 | 0.48 | 97 | 1012.9 |
| 20260902124602 | 18 | 17 | 0.0 | 4.8 | 0.00 | 0.48 | 0.48 | 97 | 1012.9 |
| 20260902124546 | 18 | 17 | 0.0 | 4.8 | 0.00 | 0.48 | 0.48 | 97 | 1012.9 |
| 20260902124245 | 18 | 17 | 0.0 | 4.8 | 0.00 | 0.48 | 0.48 | 97 | 1012.8 |
| 20260902124141 | 18 | 17 | 0.0 | 4.8 | 0.00 | 0.48 | 0.48 | 97 | 1012.7 |
| 20260902124103 | 18 | 17 | 0.0 | 4.8 | 0.00 | 0.48 | 0.48 | 97 | 1012.7 |
| 20260902123845 | 18 | 18 | 0.0 | 4.8 | 0.00 | 0.48 | 0.48 | 97 | 1012.8 |
| 20260902123644 | 18 | 17 | 0.0 | 3.2 | 0.00 | 0.48 | 0.48 | 97 | 1012.7 |
| 20260902123603 | 18 | 17 | 0.0 | 3.2 | 0.00 | 0.48 | 0.48 | 97 | 1012.6 |
| 20260902123448 | 18 | 14 | 0.0 | 0.0 | 0.00 | 0.48 | 0.48 | 97 | 1012.6 |
| 20260902123230 | 18 | 18 | 0.0 | 0.0 | 0.00 | 0.48 | 0.48 | 97 | 1012.6 |
| 20260902123105 | 18 | 34 | 0.0 | 0.0 | 0.00 | 0.48 | 0.48 | 97 | 1012.6 |
| 20260902123030 | 18 | 32 | 0.0 | 0.0 | 0.00 | 0.48 | 0.48 | 97 | 1012.6 |
| 20260902122830 | 18 | 32 | 0.0 | 1.6 | 0.00 | 0.48 | 0.48 | 97 | 1012.6 |
| 20260902122732 | 18 | 6 | 0.0 | 1.6 | 0.00 | 0.48 | 0.48 | 97 | 1012.5 |
| 20260902122604 | 18 | 6 | 0.0 | 1.6 | 0.00 | 0.48 | 0.48 | 97 | 1012.5 |
| 20260902122434 | 18 | 6 | 0.0 | 3.2 | 0.00 | 0.48 | 0.48 | 97 | 1012.5 |
| 20260902122321 | 18 | 6 | 0.0 | 3.2 | 0.00 | 0.48 | 0.48 | 97 | 1012.5 |
| 20260902122101 | 18 | 6 | 0.0 | 3.2 | 0.00 | 0.48 | 0.48 | 97 | 1012.5 |
| 20260902122025 | 18 | 6 | 0.0 | 3.2 | 0.00 | 0.48 | 0.48 | 97 | 1012.6 |
| 20260902121852 | 18 | 6 | 0.0 | 3.2 | 0.00 | 0.48 | 0.48 | 97 | 1012.6 |
| 20260902121843 | 18 | 6 | 0.0 | 3.2 | 0.00 | 0.48 | 0.48 | 97 | 1012.6 |
| 20260902121816 | 18 | 6 | 0.0 | 3.2 | 0.00 | 0.48 | 0.48 | 97 | 1012.6 |
| 20260902121423 | 18 | 6 | 0.0 | 3.2 | 0.00 | 0.48 | 0.48 | 97 | 1012.6 |
| 20260902121323 | 18 | 6 | 0.0 | 3.2 | 0.00 | 0.48 | 0.48 | 97 | 1012.6 |
| 20260902121101 | 18 | 6 | 0.0 | 3.2 | 0.00 | 0.48 | 0.48 | 97 | 1012.5 |
| 20260902121020 | 18 | 6 | 0.0 | 3.2 | 0.00 | 0.48 | 0.48 | 97 | 1012.5 |
| 20260902120917 | 18 | 6 | 0.0 | 3.2 | 0.00 | 0.48 | 0.48 | 97 | 1012.5 |
| 20260902120619 | 18 | 6 | 0.0 | 3.2 | 0.00 | 0.48 | 0.48 | 97 | 1012.5 |
| 20260902120558 | 18 | 6 | 0.0 | 3.2 | 0.00 | 0.48 | 0.48 | 97 | 1012.5 |
| 20260902120417 | 18 | 6 | 0.0 | 3.2 | 0.00 | 0.48 | 0.48 | 97 | 1012.6 |
| 20260902120218 | 18 | 6 | 0.0 | 3.2 | 0.00 | 0.48 | 0.48 | 97 | 1012.7 |
| 20260902120101 | 18 | 6 | 0.0 | 4.8 | 0.00 | 0.48 | 0.48 | 97 | 1012.8 |
| 20260902120014 | 18 | 7 | 0.0 | 4.8 | 0.00 | 0.48 | 0.48 | 97 | 1012.8 |
| 20260902115915 | 18 | 4 | 0.0 | 4.8 | 0.00 | 0.48 | 0.48 | 97 | 1012.7 |
| 20260902115607 | 18 | 49 | 0.0 | 4.8 | 0.00 | 0.48 | 0.48 | 97 | 1012.6 |
| 20260902115555 | 18 | 49 | 0.0 | 4.8 | 0.00 | 0.48 | 0.48 | 97 | 1012.6 |
| 20260902115410 | 18 | 49 | 0.0 | 4.8 | 0.00 | 0.48 | 0.48 | 97 | 1012.5 |
| 20260902115204 | 18 | 44 | 0.0 | 4.8 | 0.00 | 0.48 | 0.48 | 97 | 1012.6 |
| 20260902115057 | 18 | 37 | 0.0 | 4.8 | 0.00 | 0.48 | 0.48 | 96 | 1012.6 |
| 20260902115001 | 18 | 38 | 0.0 | 4.8 | 0.00 | 0.48 | 0.48 | 96 | 1012.8 |
| 20260902114805 | 18 | 37 | 0.0 | 4.8 | 0.00 | 0.48 | 0.48 | 96 | 1012.7 |
| 20260902114759 | 18 | 65 | 0.0 | 3.2 | 0.00 | 0.48 | 0.48 | 96 | 1012.7 |
| 20260902114554 | 18 | 65 | 0.0 | 3.2 | 0.00 | 0.48 | 0.48 | 96 | 1012.7 |
| 20260902114402 | 18 | 32 | 0.0 | 3.2 | 0.00 | 0.48 | 0.48 | 96 | 1012.8 |
| 20260902114203 | 18 | 7 | 0.0 | 1.6 | 0.00 | 0.48 | 0.48 | 96 | 1012.9 |
| 20260902114055 | 18 | 7 | 0.0 | 1.6 | 0.00 | 0.48 | 0.48 | 96 | 1012.8 |
| 20260902113957 | 18 | 7 | 0.0 | 1.6 | 0.03 | 0.48 | 0.48 | 96 | 1012.8 |
| 20260902113755 | 18 | 27 | 0.0 | 1.6 | 0.03 | 0.48 | 0.48 | 96 | 1012.8 |
| 20260902113554 | 18 | 27 | 0.0 | 3.2 | 0.10 | 0.48 | 0.48 | 96 | 1012.8 |
| 20260902113358 | 18 | 25 | 0.0 | 3.2 | 0.20 | 0.48 | 0.48 | 96 | 1012.9 |
| 20260902113353 | 18 | 27 | 0.0 | 4.8 | 0.36 | 0.48 | 0.48 | 96 | 1012.9 |
| 20260902113054 | 18 | 27 | 0.0 | 4.8 | 0.36 | 0.48 | 0.48 | 96 | 1012.9 |
| 20260902112952 | 18 | 27 | 0.0 | 4.8 | 0.36 | 0.48 | 0.48 | 96 | 1012.8 |
| 20260902112745 | 18 | 27 | 0.0 | 6.4 | 0.36 | 0.48 | 0.48 | 96 | 1012.8 |
| 20260902112554 | 18 | 25 | 0.0 | 6.4 | 0.36 | 0.48 | 0.48 | 96 | 1012.7 |
| 20260902112547 | 18 | 27 | 0.0 | 6.4 | 0.36 | 0.48 | 0.48 | 96 | 1012.7 |
| 20260902112349 | 18 | 86 | 0.0 | 6.4 | 0.36 | 0.48 | 0.48 | 96 | 1012.8 |
| 20260902112141 | 18 | 48 | 0.0 | 6.4 | 0.36 | 0.48 | 0.48 | 96 | 1012.8 |
| 20260902112051 | 18 | 49 | 0.0 | 6.4 | 0.36 | 0.48 | 0.48 | 96 | 1012.8 |
| 20260902111948 | 18 | 21 | 0.0 | 4.8 | 0.36 | 0.48 | 0.48 | 96 | 1013.0 |
| 20260902111942 | 18 | 51 | 0.0 | 6.4 | 0.36 | 0.48 | 0.48 | 96 | 1013.0 |
| 20260902111540 | 19 | 16 | 0.0 | 4.8 | 0.36 | 0.48 | 0.48 | 96 | 1013.0 |
| 20260902111445 | 19 | 13 | 0.0 | 4.8 | 0.36 | 0.48 | 0.48 | 97 | 1013.0 |
| 20260902111141 | 19 | 13 | 0.0 | 4.8 | 0.36 | 0.48 | 0.48 | 97 | 1013.2 |
| 20260902111052 | 19 | 13 | 0.0 | 4.8 | 0.36 | 0.48 | 0.48 | 96 | 1013.2 |
| 20260902110939 | 19 | 14 | 0.0 | 4.8 | 0.36 | 0.48 | 0.48 | 96 | 1013.6 |
| 20260902110739 | 19 | 13 | 0.0 | 3.2 | 0.36 | 0.48 | 0.48 | 96 | 1013.8 |
| 20260902110538 | 19 | 13 | 0.0 | 3.2 | 0.36 | 0.48 | 0.48 | 96 | 1013.8 |
| 20260902110439 | 19 | 14 | 0.0 | 3.2 | 0.36 | 0.48 | 0.48 | 97 | 1013.8 |
| 20260902110138 | 19 | 13 | 0.0 | 4.8 | 0.36 | 0.48 | 0.48 | 97 | 1013.9 |
| 20260902110036 | 19 | 13 | 0.0 | 4.8 | 0.36 | 0.13 | 0.48 | 97 | 1013.9 |
| 20260902105736 | 19 | 13 | 0.0 | 4.8 | 0.36 | 0.13 | 0.48 | 96 | 1013.8 |
| 20260902105549 | 19 | 13 | 0.0 | 4.8 | 0.36 | 0.13 | 0.48 | 96 | 1013.7 |
| 20260902105536 | 19 | 13 | 0.0 | 4.8 | 0.36 | 0.13 | 0.48 | 96 | 1013.6 |
| 20260902105335 | 19 | 13 | 0.0 | 4.8 | 0.36 | 0.13 | 0.48 | 96 | 1013.6 |
| 20260902105135 | 19 | 185 | 0.0 | 6.4 | 0.36 | 0.13 | 0.48 | 96 | 1013.4 |
| 20260902105049 | 19 | 185 | 0.0 | 6.4 | 0.36 | 0.13 | 0.48 | 96 | 1013.4 |
| 20260902105034 | 19 | 185 | 0.0 | 6.4 | 0.36 | 0.13 | 0.48 | 96 | 1013.4 |
| 20260902104731 | 19 | 185 | 0.0 | 6.4 | 0.36 | 0.13 | 0.48 | 96 | 1013.1 |
| 20260902104626 | 19 | 193 | 0.0 | 6.4 | 0.36 | 0.13 | 0.48 | 96 | 1013.0 |
| 20260902104549 | 19 | 193 | 0.0 | 6.4 | 0.36 | 0.13 | 0.48 | 96 | 1013.0 |
| 20260902104329 | 19 | 195 | 0.0 | 6.4 | 0.36 | 0.13 | 0.48 | 96 | 1012.9 |
| 20260902104129 | 19 | 175 | 0.0 | 4.8 | 0.36 | 0.13 | 0.48 | 96 | 1012.8 |
| 20260902104049 | 19 | 176 | 0.0 | 4.8 | 0.36 | 0.13 | 0.46 | 96 | 1012.8 |
| 20260902103929 | 19 | 176 | 0.0 | 4.8 | 0.33 | 0.13 | 0.46 | 96 | 1012.9 |
| 20260902103731 | 19 | 196 | 0.0 | 6.4 | 0.33 | 0.13 | 0.43 | 96 | 1013.0 |
| 20260902103547 | 19 | 214 | 0.0 | 6.4 | 0.25 | 0.13 | 0.36 | 96 | 1013.2 |
| 20260902103529 | 19 | 216 | 0.0 | 6.4 | 0.25 | 0.13 | 0.36 | 96 | 1013.4 |
| 20260902103328 | 19 | 221 | 0.0 | 6.4 | 0.10 | 0.13 | 0.18 | 96 | 1014.1 |
| 20260902103230 | 19 | 197 | 0.0 | 9.7 | 0.00 | 0.13 | 0.13 | 96 | 1013.7 |
| 20260902103048 | 19 | 199 | 0.0 | 9.7 | 0.00 | 0.13 | 0.13 | 96 | 1013.7 |
| 20260902102928 | 19 | 199 | 0.0 | 9.7 | 0.00 | 0.13 | 0.13 | 96 | 1013.8 |
| 20260902102727 | 18 | 188 | 0.0 | 9.7 | 0.00 | 0.13 | 0.13 | 96 | 1013.8 |
| 20260902102528 | 18 | 189 | 0.0 | 9.7 | 0.00 | 0.13 | 0.13 | 96 | 1013.9 |
| 20260902102326 | 18 | 188 | 0.0 | 9.7 | 0.00 | 0.13 | 0.13 | 96 | 1013.8 |
| 20260902102225 | 18 | 200 | 0.0 | 6.4 | 0.00 | 0.13 | 0.13 | 96 | 1013.8 |
| 20260902102048 | 18 | 200 | 0.0 | 6.4 | 0.00 | 0.13 | 0.13 | 96 | 1013.8 |
| 20260902101927 | 18 | 200 | 0.0 | 6.4 | 0.00 | 0.13 | 0.13 | 96 | 1013.8 |
| 20260902101823 | 18 | 207 | 0.0 | 4.8 | 0.00 | 0.13 | 0.13 | 96 | 1013.8 |
| 20260902101522 | 18 | 206 | 0.0 | 4.8 | 0.00 | 0.13 | 0.13 | 96 | 1013.9 |
| 20260902101322 | 18 | 207 | 0.0 | 4.8 | 0.00 | 0.13 | 0.13 | 96 | 1013.9 |
| 20260902101123 | 18 | 206 | 0.0 | 4.8 | 0.00 | 0.13 | 0.13 | 96 | 1013.8 |
| 20260902101050 | 18 | 207 | 0.0 | 4.8 | 0.00 | 0.13 | 0.13 | 96 | 1013.8 |
| 20260902100915 | 18 | 207 | 0.0 | 4.8 | 0.00 | 0.13 | 0.13 | 96 | 1013.6 |
| 20260902100903 | 18 | 207 | 0.0 | 4.8 | 0.00 | 0.13 | 0.13 | 96 | 1013.7 |
| 20260902100825 | 18 | 206 | 0.0 | 6.4 | 0.00 | 0.13 | 0.13 | 96 | 1013.6 |
| 20260902100447 | 18 | 206 | 0.0 | 6.4 | 0.00 | 0.13 | 0.13 | 96 | 1013.5 |
| 20260902100352 | 18 | 206 | 0.0 | 6.4 | 0.00 | 0.13 | 0.13 | 96 | 1013.6 |
| 20260902100105 | 18 | 207 | 0.0 | 6.4 | 0.00 | 0.13 | 0.13 | 96 | 1013.5 |
| 20260902095848 | 18 | 207 | 0.0 | 6.4 | 0.00 | 0.13 | 0.13 | 96 | 1013.6 |
| 20260902095839 | 18 | 206 | 0.0 | 6.4 | 0.00 | 0.13 | 0.13 | 96 | 1013.4 |
| 20260902095815 | 18 | 206 | 0.0 | 6.4 | 0.00 | 0.13 | 0.13 | 96 | 1013.5 |
| 20260902095453 | 18 | 152 | 0.0 | 4.8 | 0.00 | 0.13 | 0.13 | 95 | 1013.3 |
| 20260902095447 | 18 | 162 | 0.0 | 6.4 | 0.00 | 0.13 | 0.13 | 96 | 1013.3 |
| 20260902095049 | 18 | 154 | 0.0 | 4.8 | 0.00 | 0.13 | 0.13 | 95 | 1013.1 |
| 20260902094851 | 18 | 152 | 0.0 | 4.8 | 0.00 | 0.13 | 0.13 | 95 | 1013.1 |
| 20260902094841 | 18 | 148 | 0.0 | 4.8 | 0.00 | 0.13 | 0.13 | 95 | 1013.2 |
| 20260902094816 | 18 | 148 | 0.0 | 4.8 | 0.00 | 0.13 | 0.13 | 95 | 1013.2 |
| 20260902094448 | 18 | 148 | 0.0 | 4.8 | 0.00 | 0.13 | 0.13 | 95 | 1013.2 |
| 20260902094249 | 18 | 147 | 0.0 | 3.2 | 0.00 | 0.13 | 0.13 | 95 | 1013.1 |
| 20260902094150 | 18 | 147 | 0.0 | 3.2 | 0.00 | 0.13 | 0.13 | 95 | 1013.0 |
| 20260902094048 | 18 | 147 | 0.0 | 3.2 | 0.00 | 0.13 | 0.13 | 95 | 1013.0 |
| 20260902093947 | 18 | 147 | 0.0 | 3.2 | 0.00 | 0.13 | 0.13 | 95 | 1012.9 |
| 20260902093841 | 18 | 147 | 0.0 | 3.2 | 0.00 | 0.13 | 0.13 | 95 | 1012.8 |
| 20260902093815 | 18 | 147 | 0.0 | 3.2 | 0.00 | 0.13 | 0.13 | 95 | 1012.9 |
| 20260902093449 | 18 | 147 | 0.0 | 1.6 | 0.00 | 0.13 | 0.13 | 95 | 1012.6 |
| 20260902093353 | 18 | 147 | 0.0 | 3.2 | 0.00 | 0.13 | 0.13 | 95 | 1012.5 |
| 20260902093336 | 18 | 147 | 0.0 | 3.2 | 0.00 | 0.13 | 0.13 | 95 | 1012.6 |
| 20260902093301 | 18 | 147 | 0.0 | 3.2 | 0.00 | 0.13 | 0.13 | 95 | 1012.5 |
| 20260902092846 | 18 | 145 | 0.0 | 4.8 | 0.00 | 0.13 | 0.13 | 95 | 1012.5 |
| 20260902092747 | 18 | 144 | 0.0 | 4.8 | 0.00 | 0.13 | 0.13 | 95 | 1012.5 |
| 20260902092558 | 18 | 144 | 0.0 | 4.8 | 0.00 | 0.13 | 0.13 | 95 | 1012.5 |
| 20260902092547 | 18 | 144 | 0.0 | 4.8 | 0.00 | 0.13 | 0.13 | 95 | 1012.5 |
| 20260902092354 | 18 | 47 | 0.0 | 4.8 | 0.00 | 0.13 | 0.13 | 95 | 1012.4 |
| 20260902092338 | 18 | 141 | 0.0 | 4.8 | 0.00 | 0.13 | 0.13 | 95 | 1012.5 |
| 20260902092305 | 18 | 47 | 0.0 | 4.8 | 0.00 | 0.13 | 0.13 | 95 | 1012.4 |
| 20260902091849 | 18 | 32 | 0.0 | 4.8 | 0.00 | 0.13 | 0.13 | 95 | 1012.2 |
| 20260902091648 | 18 | 118 | 0.0 | 4.8 | 0.00 | 0.13 | 0.13 | 95 | 1012.2 |
| 20260902091547 | 18 | 118 | 0.0 | 4.8 | 0.00 | 0.13 | 0.13 | 95 | 1012.3 |
| 20260902091449 | 18 | 120 | 0.0 | 4.8 | 0.00 | 0.13 | 0.13 | 95 | 1012.4 |
| 20260902091439 | 18 | 161 | 0.0 | 6.4 | 0.00 | 0.13 | 0.13 | 95 | 1012.4 |
| 20260902091350 | 18 | 182 | 0.0 | 8.0 | 0.00 | 0.13 | 0.13 | 95 | 1012.5 |
| 20260902091303 | 18 | 182 | 0.0 | 8.0 | 0.00 | 0.13 | 0.13 | 95 | 1012.5 |
| 20260902090846 | 18 | 183 | 0.0 | 8.0 | 0.00 | 0.13 | 0.13 | 95 | 1012.4 |
| 20260902090646 | 18 | 183 | 0.0 | 9.7 | 0.00 | 0.13 | 0.13 | 95 | 1012.5 |
| 20260902090559 | 18 | 182 | 0.0 | 9.7 | 0.00 | 0.13 | 0.13 | 95 | 1012.6 |
| 20260902090548 | 18 | 183 | 0.0 | 9.7 | 0.00 | 0.13 | 0.13 | 95 | 1012.5 |
| 20260902090404 | 18 | 183 | 0.0 | 9.7 | 0.00 | 0.13 | 0.13 | 95 | 1012.7 |
| 20260902090348 | 18 | 145 | 0.0 | 9.7 | 0.00 | 0.13 | 0.13 | 95 | 1012.7 |
| 20260902090316 | 18 | 183 | 0.0 | 9.7 | 0.00 | 0.13 | 0.13 | 95 | 1012.7 |
| 20260902085846 | 18 | 165 | 0.0 | 9.7 | 0.00 | 0.13 | 0.13 | 96 | 1012.6 |
| 20260902085750 | 18 | 214 | 0.0 | 8.0 | 0.00 | 0.13 | 0.13 | 95 | 1012.6 |
| 20260902085549 | 18 | 214 | 0.0 | 8.0 | 0.00 | 0.13 | 0.13 | 95 | 1012.7 |
| 20260902085449 | 18 | 214 | 0.0 | 8.0 | 0.00 | 0.13 | 0.13 | 95 | 1012.8 |
| 20260902085247 | 18 | 162 | 0.0 | 8.0 | 0.00 | 0.13 | 0.13 | 95 | 1012.7 |
| 20260902085204 | 18 | 148 | 0.0 | 4.8 | 0.00 | 0.13 | 0.13 | 95 | 1012.4 |
| 20260902085053 | 18 | 148 | 0.0 | 4.8 | 0.00 | 0.13 | 0.13 | 95 | 1012.4 |
| 20260902084846 | 18 | 120 | 0.0 | 3.2 | 0.00 | 0.13 | 0.13 | 95 | 1012.0 |
| 20260902084647 | 18 | 118 | 0.0 | 3.2 | 0.00 | 0.13 | 0.13 | 95 | 1012.1 |
| 20260902084545 | 18 | 118 | 0.0 | 3.2 | 0.00 | 0.13 | 0.13 | 95 | 1012.0 |
| 20260902084447 | 18 | 120 | 0.0 | 3.2 | 0.00 | 0.13 | 0.13 | 95 | 1012.0 |
| 20260902084439 | 18 | 118 | 0.0 | 4.8 | 0.00 | 0.13 | 0.13 | 95 | 1012.1 |
| 20260902084349 | 18 | 120 | 0.0 | 4.8 | 0.00 | 0.13 | 0.13 | 95 | 1011.9 |
| 20260902084305 | 18 | 120 | 0.0 | 4.8 | 0.00 | 0.13 | 0.13 | 95 | 1011.9 |
| 20260902083848 | 18 | 178 | 0.0 | 6.4 | 0.00 | 0.13 | 0.13 | 95 | 1012.0 |
| 20260902083748 | 18 | 124 | 0.0 | 11.3 | 0.00 | 0.13 | 0.13 | 95 | 1012.0 |
| 20260902083545 | 18 | 113 | 0.0 | 11.3 | 0.00 | 0.13 | 0.13 | 95 | 1011.9 |
| 20260902083446 | 18 | 133 | 0.0 | 11.3 | 0.03 | 0.13 | 0.13 | 95 | 1011.7 |
| 20260902083351 | 18 | 63 | 0.0 | 11.3 | 0.03 | 0.13 | 0.13 | 95 | 1011.4 |
| 20260902083334 | 18 | 149 | 0.0 | 11.3 | 0.03 | 0.13 | 0.13 | 95 | 1011.5 |
| 20260902083301 | 18 | 63 | 0.0 | 11.3 | 0.03 | 0.13 | 0.13 | 95 | 1011.4 |
| 20260902082946 | 18 | 79 | 0.0 | 11.3 | 0.03 | 0.13 | 0.13 | 95 | 1011.1 |
| 20260902082647 | 18 | 0 | 0.0 | 6.4 | 0.03 | 0.13 | 0.13 | 95 | 1011.0 |
| 20260902082547 | 18 | 7 | 0.0 | 6.4 | 0.03 | 0.13 | 0.13 | 95 | 1011.0 |
| 20260902082446 | 18 | 51 | 0.0 | 6.4 | 0.03 | 0.13 | 0.13 | 95 | 1010.9 |
| 20260902082347 | 18 | 34 | 0.0 | 6.4 | 0.05 | 0.13 | 0.13 | 95 | 1011.2 |
| 20260902082332 | 18 | 17 | 0.0 | 6.4 | 0.03 | 0.13 | 0.13 | 95 | 1010.9 |
| 20260902082259 | 18 | 34 | 0.0 | 6.4 | 0.05 | 0.13 | 0.13 | 95 | 1011.2 |
| 20260902081946 | 18 | 39 | 0.0 | 6.4 | 0.05 | 0.13 | 0.13 | 95 | 1011.4 |
| 20260902081649 | 18 | 11 | 0.0 | 6.4 | 0.05 | 0.13 | 0.13 | 95 | 1011.6 |
| 20260902081554 | 18 | 25 | 0.0 | 6.4 | 0.05 | 0.13 | 0.13 | 95 | 1011.7 |
| 20260902081545 | 18 | 24 | 0.0 | 6.4 | 0.05 | 0.13 | 0.13 | 95 | 1011.7 |
| 20260902081248 | 18 | 23 | 0.0 | 6.4 | 0.08 | 0.13 | 0.13 | 95 | 1011.7 |
| 20260902081047 | 18 | 23 | 0.0 | 6.4 | 0.08 | 0.13 | 0.13 | 95 | 1011.9 |
| 20260902080847 | 18 | 24 | 0.0 | 6.4 | 0.08 | 0.13 | 0.13 | 95 | 1012.0 |
| 20260902080646 | 18 | 1 | 0.0 | 11.3 | 0.08 | 0.13 | 0.13 | 95 | 1011.9 |
| 20260902080558 | 18 | 1 | 0.0 | 11.3 | 0.08 | 0.13 | 0.13 | 95 | 1011.8 |
| 20260902080546 | 18 | 1 | 0.0 | 11.3 | 0.08 | 0.13 | 0.13 | 95 | 1011.8 |
| 20260902080247 | 18 | 1 | 0.0 | 11.3 | 0.08 | 0.13 | 0.13 | 94 | 1011.8 |
| 20260902080157 | 18 | 32 | 0.0 | 11.3 | 0.08 | 0.13 | 0.13 | 94 | 1011.9 |
| 20260902080055 | 18 | 32 | 0.0 | 11.3 | 0.08 | 0.13 | 0.13 | 94 | 1011.9 |
| 20260902075847 | 18 | 31 | 0.0 | 11.3 | 0.00 | 0.05 | 0.13 | 94 | 1012.0 |
| 20260902075839 | 18 | 39 | 0.0 | 8.0 | 0.00 | 0.05 | 0.13 | 94 | 1012.5 |
| 20260902075817 | 18 | 39 | 0.0 | 8.0 | 0.00 | 0.05 | 0.13 | 94 | 1012.4 |
| 20260902075447 | 18 | 35 | 0.0 | 8.0 | 0.00 | 0.05 | 0.13 | 94 | 1012.6 |
| 20260902075248 | 18 | 27 | 0.0 | 4.8 | 0.00 | 0.05 | 0.13 | 94 | 1012.4 |
| 20260902075047 | 18 | 28 | 0.0 | 8.0 | 0.00 | 0.05 | 0.13 | 94 | 1012.2 |
| 20260902074916 | 19 | 28 | 0.0 | 8.0 | 0.00 | 0.05 | 0.13 | 94 | 1012.6 |
| 20260902074848 | 18 | 28 | 0.0 | 8.0 | 0.00 | 0.05 | 0.13 | 94 | 1012.4 |
| 20260902074835 | 19 | 28 | 0.0 | 8.0 | 0.00 | 0.05 | 0.13 | 94 | 1012.6 |
| 20260902074448 | 19 | 28 | 0.0 | 9.7 | 0.00 | 0.05 | 0.13 | 94 | 1012.7 |
| 20260902074347 | 19 | 28 | 0.0 | 9.7 | 0.00 | 0.05 | 0.13 | 94 | 1012.7 |
| 20260902074047 | 19 | 30 | 0.0 | 9.7 | 0.00 | 0.05 | 0.13 | 94 | 1012.7 |
| 20260902074033 | 19 | 30 | 0.0 | 9.7 | 0.00 | 0.05 | 0.13 | 94 | 1012.8 |
| 20260902073848 | 19 | 44 | 0.0 | 9.7 | 0.00 | 0.05 | 0.13 | 94 | 1012.7 |
| 20260902073826 | 19 | 25 | 0.0 | 9.7 | 0.03 | 0.05 | 0.10 | 94 | 1012.4 |
| 20260902073806 | 19 | 45 | 0.0 | 9.7 | 0.03 | 0.05 | 0.13 | 94 | 1012.5 |
| 20260902073448 | 19 | 154 | 0.0 | 9.7 | 0.03 | 0.05 | 0.10 | 94 | 1012.4 |
| 20260902073347 | 19 | 11 | 0.0 | 9.7 | 0.03 | 0.05 | 0.10 | 95 | 1012.3 |
| 20260902073047 | 19 | 11 | 0.0 | 16.1 | 0.03 | 0.05 | 0.10 | 95 | 1012.4 |
| 20260902073031 | 19 | 49 | 0.0 | 16.1 | 0.03 | 0.05 | 0.10 | 95 | 1012.2 |
| 20260902072948 | 19 | 32 | 0.0 | 16.1 | 0.05 | 0.05 | 0.10 | 94 | 1012.2 |
| 20260902072646 | 19 | 11 | 0.0 | 16.1 | 0.05 | 0.05 | 0.10 | 94 | 1012.2 |
| 20260902072530 | 19 | 18 | 0.0 | 16.1 | 0.05 | 0.05 | 0.10 | 94 | 1012.1 |
| 20260902072448 | 19 | 24 | 0.0 | 16.1 | 0.05 | 0.05 | 0.10 | 94 | 1012.0 |
| 20260902072247 | 19 | 30 | 0.0 | 16.1 | 0.05 | 0.05 | 0.10 | 94 | 1012.1 |
| 20260902072032 | 19 | 32 | 0.0 | 11.3 | 0.05 | 0.05 | 0.08 | 94 | 1012.2 |
| 20260902071949 | 19 | 32 | 0.0 | 11.3 | 0.05 | 0.05 | 0.08 | 94 | 1012.2 |
| 20260902071828 | 19 | 21 | 0.0 | 11.3 | 0.05 | 0.05 | 0.08 | 94 | 1012.2 |
| 20260902071824 | 19 | 34 | 0.0 | 11.3 | 0.05 | 0.05 | 0.08 | 93 | 1012.3 |
| 20260902071805 | 19 | 51 | 0.0 | 11.3 | 0.05 | 0.05 | 0.08 | 94 | 1012.1 |
| 20260902071233 | 19 | 35 | 0.0 | 6.4 | 0.05 | 0.05 | 0.05 | 93 | 1012.5 |
| 20260902071036 | -17 | 35 | 0.0 | 0.0 | 0.00 | 0.00 | 0.00 | 1012.6 | |
| 20260902070927 | -17 | 0.0 | 0.0 | 0.05 | 0.05 | 0.05 | |||
| 20260902070634 | -17 | 0.0 | 0.0 | 0.05 | 0.05 | 0.05 | |||
| 20260902070334 | -17 | 0.0 | 0.0 | 0.05 | 0.05 | 0.05 | |||
| 20260902070211 | -17 | 0.0 | 0.0 | 0.05 | 0.05 | 0.05 | |||
| 20260902070131 | -17 | 0.0 | 0.0 | 0.05 | 0.05 | 0.05 | |||
| 20260902065916 | -17 | 0.0 | 0.0 | 0.00 | 0.00 | 0.05 | 1014.3 | ||
| 20260902065911 | -17 | 0.0 | 0.0 | 0.00 | 0.00 | 0.05 | |||
| 20260902065856 | -17 | 0.0 | 0.0 | 0.00 | 0.00 | 0.05 | 1014.3 | ||
| 20260902065435 | -17 | 0.0 | 0.0 | 0.00 | 0.00 | 0.05 | 1014.3 | ||
| 20260902065235 | -17 | 0.0 | 0.0 | 0.00 | 0.00 | 0.05 | 1014.3 | ||
| 20260902065137 | 20 | 23 | 0.0 | 0.0 | 0.00 | 0.00 | 0.05 | 90 | 1014.3 |
| 20260902065104 | 20 | 23 | 0.0 | 0.0 | 0.00 | 0.00 | 0.05 | 90 | 1014.3 |
| 20260902064850 | 20 | 23 | 0.0 | 9.7 | 0.00 | 0.00 | 0.05 | 90 | 1014.5 |
| 20260902064843 | 20 | 23 | 0.0 | 0.0 | 0.00 | 0.00 | 0.05 | 90 | 1014.3 |
| 20260902064407 | 20 | 23 | 0.0 | 9.7 | 0.00 | 0.00 | 0.05 | 90 | 1014.6 |
| 20260902064202 | 20 | 23 | 0.0 | 9.7 | 0.00 | 0.00 | 0.05 | 90 | 1014.8 |
| 20260902064100 | 20 | 49 | 0.0 | 14.5 | 0.00 | 0.00 | 0.05 | 91 | 1015.0 |
| 20260902064002 | 20 | 133 | 0.0 | 14.5 | 0.00 | 0.00 | 0.05 | 91 | 1015.1 |
| 20260902063801 | 20 | 165 | 0.0 | 14.5 | 0.00 | 0.00 | 0.03 | 91 | 1015.3 |
| 20260902063710 | 21 | 152 | 0.0 | 22.5 | 0.00 | 0.00 | 0.03 | 92 | 1015.5 |
| 20260902063601 | 21 | 152 | 0.0 | 22.5 | 0.00 | 0.00 | 0.03 | 92 | 1015.5 |
| 20260902063400 | 21 | 166 | 0.0 | 22.5 | 0.00 | 0.00 | 0.03 | 92 | 1015.6 |
| 20260902063158 | 21 | 168 | 0.0 | 22.5 | 0.00 | 0.00 | 0.03 | 92 | 1015.9 |
| 20260902063058 | 21 | 183 | 0.0 | 22.5 | 0.00 | 0.00 | 0.00 | 93 | 1015.9 |
| 20260902062958 | 21 | 189 | 0.0 | 22.5 | 0.00 | 0.00 | 0.00 | 93 | 1015.8 |
| 20260902062948 | 21 | 169 | 0.0 | 22.5 | 0.00 | 0.00 | 0.00 | 93 | 1016.1 |
| 20260902062906 | 21 | 144 | 0.0 | 17.7 | 0.00 | 0.00 | 0.00 | 94 | 1016.3 |
| 20260902062820 | 21 | 144 | 0.0 | 17.7 | 0.00 | 0.00 | 0.00 | 94 | 1016.3 |
| 20260902062009 | 21 | 195 | 0.0 | 16.1 | 0.03 | 0.00 | 0.03 | 95 | 1016.6 |
| 20260902061809 | 21 | 195 | 0.0 | 16.1 | 0.03 | 0.00 | 0.03 | 95 | 1016.4 |
| 20260902061706 | 21 | 195 | 0.0 | 16.1 | 0.03 | 0.00 | 0.03 | 95 | 1016.2 |
| 20260902061506 | 21 | 212 | 0.0 | 16.1 | 0.03 | 0.00 | 0.03 | 95 | 1015.8 |
| 20260902061307 | 21 | 196 | 0.0 | 14.5 | 0.03 | 0.00 | 0.03 | 95 | 1015.4 |
| 20260902061106 | 21 | 192 | 0.0 | 14.5 | 0.03 | 0.00 | 0.03 | 96 | 1015.2 |
| 20260902061009 | 21 | 189 | 0.0 | 9.7 | 0.03 | 0.00 | 0.03 | 96 | 1015.0 |
| 20260902060808 | 21 | 197 | 0.0 | 9.7 | 0.03 | 0.00 | 0.03 | 96 | 1014.7 |
| 20260902060706 | 21 | 188 | 0.0 | 9.7 | 0.00 | 0.00 | 0.00 | 96 | 1014.7 |
| 20260902060607 | 21 | 173 | 0.0 | 4.8 | 0.00 | 0.00 | 0.00 | 96 | 1014.4 |
| 20260902060309 | 21 | 151 | 0.0 | 0.0 | 0.00 | 0.00 | 0.00 | 96 | 1014.2 |
| 20260902060106 | 21 | 149 | 0.0 | 0.0 | 0.00 | 0.00 | 0.00 | 96 | 1013.9 |
| 20260902060058 | 21 | 149 | 0.0 | 0.0 | 0.00 | 0.00 | 0.00 | 96 | 1013.5 |
| 20260902060032 | 21 | 149 | 0.0 | 0.0 | 0.00 | 0.00 | 0.00 | 96 | 1013.7 |
| 20260902055705 | 21 | 148 | 0.0 | 0.0 | 0.00 | 0.00 | 0.00 | 96 | 1013.4 |
| 20260902055601 | 21 | 149 | 0.0 | 0.0 | 0.00 | 0.00 | 0.00 | 96 | 1013.3 |
| 20260902055307 | 21 | 148 | 0.0 | 0.0 | 0.00 | 0.00 | 0.00 | 96 | 1013.2 |
| 20260902055209 | 21 | 147 | 0.0 | 0.0 | 0.00 | 0.00 | 0.00 | 96 | 1013.2 |
| 20260902055114 | 21 | 149 | 0.0 | 0.0 | 0.00 | 0.00 | 0.00 | 96 | 1012.6 |
| 20260902055045 | 21 | 148 | 0.0 | 0.0 | 0.00 | 0.00 | 0.00 | 96 | 1012.9 |
| 20260902054705 | 21 | 148 | 0.0 | 0.0 | 0.00 | 0.00 | 0.00 | 96 | 1012.5 |
| 20260902054506 | 21 | 35 | 0.0 | 0.0 | 0.00 | 0.00 | 0.00 | 96 | 1012.1 |
| 20260902054408 | 21 | 35 | 0.0 | 0.0 | 0.00 | 0.00 | 0.00 | 96 | 1011.9 |
| 20260902054308 | 21 | 35 | 0.0 | 0.0 | 0.00 | 0.00 | 0.00 | 96 | 1011.9 |
| 20260902054109 | 21 | 35 | 0.0 | 0.0 | 0.00 | 0.00 | 0.00 | 96 | 1012.0 |
| 20260902054102 | 21 | 37 | 0.0 | 0.0 | 0.00 | 0.00 | 0.00 | 96 | 1011.9 |
| 20260902054034 | 21 | 37 | 0.0 | 0.0 | 0.00 | 0.00 | 0.00 | 96 | 1011.9 |
| 20260902053705 | 21 | 35 | 0.0 | 0.0 | 0.00 | 0.00 | 0.00 | 96 | 1011.9 |
| 20260902053609 | 21 | 37 | 0.0 | 0.0 | 0.00 | 0.00 | 0.00 | 96 | 1011.8 |
| 20260902053309 | 21 | 37 | 0.0 | 0.0 | 0.00 | 0.00 | 0.00 | 96 | 1012.1 |
| 20260902053138 | 21 | 37 | 0.0 | 0.0 | 0.00 | 0.00 | 0.00 | 96 | 1012.6 |
| 20260902053108 | 21 | 37 | 0.0 | 0.0 | 0.00 | 0.00 | 0.00 | 96 | 1012.4 |
| 20260902053101 | 21 | 37 | 0.0 | 0.0 | 0.00 | 0.00 | 0.00 | 96 | 1012.6 |
| 20260902052707 | 21 | 37 | 0.0 | 0.0 | 0.00 | 0.00 | 0.00 | 96 | 1012.5 |
| 20260902052506 | 21 | 35 | 0.0 | 0.0 | 0.00 | 0.00 | 0.00 | 95 | 1012.4 |
| 20260902052307 | 21 | 35 | 0.0 | 0.0 | 0.00 | 0.00 | 0.00 | 95 | 1012.4 |
| 20260902052208 | 21 | 37 | 0.0 | 0.0 | 0.00 | 0.00 | 0.00 | 95 | 1012.4 |
| 20260902052100 | 21 | 37 | 0.0 | 0.0 | 0.00 | 0.00 | 0.00 | 96 | 1012.8 |
| 20260902052033 | 21 | 38 | 0.0 | 0.0 | 0.00 | 0.00 | 0.00 | 95 | 1012.7 |
| 20260902051705 | 21 | 37 | 0.0 | 0.0 | 0.00 | 0.00 | 0.00 | 96 | 1012.9 |
| 20260902051602 | 21 | 202 | 0.0 | 0.0 | 0.00 | 0.00 | 0.00 | 96 | 1013.4 |
| 20260902051307 | 21 | 202 | 0.0 | 0.0 | 0.00 | 0.00 | 0.00 | 96 | 1013.7 |
| 20260902051132 | 21 | 202 | 0.0 | 0.0 | 0.00 | 0.00 | 0.00 | 96 | 1014.0 |
| 20260902051127 | 21 | 202 | 0.0 | 0.0 | 0.00 | 0.00 | 0.00 | 96 | 1014.0 |
| 20260902051119 | 21 | 202 | 0.0 | 0.0 | 0.00 | 0.00 | 0.00 | 96 | 1013.7 |
| 20260902051049 | 21 | 202 | 0.0 | 0.0 | 0.00 | 0.00 | 0.00 | 96 | 1014.0 |
| 20260902050610 | 21 | 200 | 0.0 | 0.0 | 0.00 | 0.00 | 0.00 | 96 | 1014.1 |
| 20260902050311 | 21 | 202 | 0.0 | 0.0 | 0.00 | 0.00 | 0.00 | 96 | 1014.2 |
| 20260902050304 | 21 | 202 | 0.0 | 0.0 | 0.00 | 0.00 | 0.00 | 96 | 1014.3 |
| 20260902050206 | 21 | 202 | 0.0 | 0.0 | 0.00 | 0.00 | 0.00 | 96 | 1014.3 |
| 20260902050059 | 20 | 200 | 0.0 | 0.0 | 0.00 | 0.00 | 0.00 | 96 | 1014.3 |
| 20260902050030 | 21 | 202 | 0.0 | 0.0 | 0.00 | 0.00 | 0.00 | 96 | 1014.3 |
| 20260902045701 | 20 | 202 | 0.0 | 0.0 | 0.00 | 0.00 | 0.00 | 96 | 1014.3 |
| 20260902045501 | 20 | 202 | 0.0 | 0.0 | 0.00 | 0.00 | 0.00 | 96 | 1014.2 |
| 20260902045309 | 20 | 200 | 0.0 | 0.0 | 0.00 | 0.00 | 0.00 | 96 | 1014.1 |
| 20260902045300 | 20 | 202 | 0.0 | 0.0 | 0.00 | 0.00 | 0.00 | 96 | 1014.0 |
| 20260902045207 | 20 | 202 | 0.0 | 0.0 | 0.00 | 0.00 | 0.00 | 95 | 1013.5 |
| 20260902045111 | 20 | 200 | 0.0 | 0.0 | 0.00 | 0.00 | 0.00 | 95 | 1013.6 |
| 20260902045102 | 20 | 202 | 0.0 | 0.0 | 0.00 | 0.00 | 0.00 | 96 | 1013.8 |
| 20260902045030 | 20 | 202 | 0.0 | 0.0 | 0.00 | 0.00 | 0.00 | 95 | 1013.6 |
| 20260902044455 | 20 | 202 | 0.0 | 0.0 | 0.00 | 0.00 | 0.00 | 95 | 1013.4 |
| 20260902044312 | 20 | 202 | 0.0 | 0.0 | 0.00 | 0.00 | 0.00 | 95 | 1013.3 |
| 20260902044304 | 20 | 202 | 0.0 | 0.0 | 0.00 | 0.00 | 0.00 | 95 | 1013.3 |
| 20260902044056 | 20 | 202 | 0.0 | 0.0 | 0.00 | 0.00 | 0.00 | 95 | 1013.2 |
| 20260902043856 | 20 | 202 | 0.0 | 0.0 | 0.00 | 0.00 | 0.00 | 95 | 1013.1 |
| 20260902043809 | 20 | 200 | 0.0 | 0.0 | 0.00 | 0.00 | 0.00 | 95 | 1013.1 |
| 20260902043801 | 20 | 200 | 0.0 | 0.0 | 0.00 | 0.00 | 0.00 | 95 | 1013.1 |
| 20260902043454 | 20 | 202 | 0.0 | 0.0 | 0.00 | 0.00 | 0.00 | 95 | 1013.1 |
| 20260902043351 | 20 | 202 | 0.0 | 0.0 | 0.00 | 0.00 | 0.00 | 95 | 1012.9 |
| 20260902043306 | 20 | 200 | 0.0 | 0.0 | 0.00 | 0.00 | 0.00 | 95 | 1013.0 |
| 20260902043051 | 20 | 202 | 0.0 | 0.0 | 0.00 | 0.00 | 0.00 | 95 | 1012.9 |
| 20260902042852 | 20 | 202 | 0.0 | 0.0 | 0.00 | 0.00 | 0.00 | 95 | 1012.8 |
| 20260902042803 | 20 | 202 | 0.0 | 0.0 | 0.00 | 0.00 | 0.00 | 95 | 1012.7 |
| 20260902042649 | 20 | 200 | 0.0 | 0.0 | 0.00 | 0.00 | 0.00 | 95 | 1012.6 |
| 20260902042450 | 20 | 202 | 0.0 | 0.0 | 0.00 | 0.00 | 0.00 | 95 | 1012.7 |
| 20260902042350 | 20 | 202 | 0.0 | 0.0 | 0.00 | 0.00 | 0.00 | 95 | 1012.7 |
| 20260902042308 | 20 | 200 | 0.0 | 0.0 | 0.00 | 0.00 | 0.00 | 95 | 1012.7 |
| 20260902042048 | 20 | 202 | 0.0 | 0.0 | 0.00 | 0.00 | 0.00 | 94 | 1012.7 |
| 20260902041849 | 20 | 200 | 0.0 | 0.0 | 0.00 | 0.00 | 0.00 | 95 | 1012.7 |
| 20260902041756 | 20 | 202 | 0.0 | 0.0 | 0.00 | 0.00 | 0.00 | 95 | 1012.7 |
| 20260902041648 | 20 | 200 | 0.0 | 0.0 | 0.00 | 0.00 | 0.00 | 95 | 1012.7 |
| 20260902041447 | 20 | 202 | 0.0 | 0.0 | 0.00 | 0.00 | 0.00 | 95 | 1012.8 |
| 20260902041345 | 20 | 202 | 0.0 | 0.0 | 0.00 | 0.00 | 0.00 | 95 | 1012.8 |
| 20260902041257 | 20 | 202 | 0.0 | 0.0 | 0.00 | 0.00 | 0.00 | 95 | 1012.8 |
| 20260902041044 | 20 | 202 | 0.0 | 0.0 | 0.00 | 0.00 | 0.00 | 95 | 1012.7 |
| 20260902040944 | 20 | 202 | 0.0 | 0.0 | 0.00 | 0.00 | 0.00 | 95 | 1012.7 |
| 20260902040759 | 20 | 200 | 0.0 | 0.0 | 0.00 | 0.00 | 0.00 | 95 | 1012.7 |
| 20260902040644 | 20 | 200 | 0.0 | 0.0 | 0.00 | 0.00 | 0.00 | 95 | 1012.8 |
| 20260902040441 | 20 | 202 | 0.0 | 0.0 | 0.00 | 0.00 | 0.00 | 95 | 1012.6 |
| 20260902040254 | 20 | 200 | 0.0 | 0.0 | 0.00 | 0.00 | 0.00 | 95 | 1012.7 |
| 20260902040239 | 20 | 202 | 0.0 | 0.0 | 0.00 | 0.00 | 0.00 | 95 | 1012.7 |
| 20260902040036 | 20 | 202 | 0.0 | 0.0 | 0.00 | 0.00 | 0.00 | 95 | 1012.7 |
| 20260902035936 | 20 | 202 | 0.0 | 0.0 | 0.00 | 0.00 | 0.00 | 95 | 1012.6 |
| 20260902035756 | 20 | 202 | 0.0 | 0.0 | 0.00 | 0.00 | 0.00 | 94 | 1012.8 |
| 20260902035635 | 20 | 202 | 0.0 | 0.0 | 0.00 | 0.00 | 0.00 | 94 | 1012.8 |
| 20260902035534 | 20 | 200 | 0.0 | 0.0 | 0.00 | 0.00 | 0.00 | 94 | 1012.9 |
| 20260902035234 | 20 | 202 | 0.0 | 0.0 | 0.00 | 0.00 | 0.00 | 94 | 1012.8 |
| 20260902035032 | 20 | 202 | 0.0 | 0.0 | 0.00 | 0.00 | 0.00 | 94 | 1012.7 |
| 20260902034831 | 20 | 202 | 0.0 | 0.0 | 0.00 | 0.00 | 0.00 | 94 | 1012.7 |
| 20260902034755 | 20 | 202 | 0.0 | 0.0 | 0.00 | 0.00 | 0.00 | 94 | 1012.7 |
| 20260902034630 | 20 | 202 | 0.0 | 0.0 | 0.00 | 0.00 | 0.00 | 94 | 1012.7 |
| 20260902034429 | 20 | 202 | 0.0 | 0.0 | 0.00 | 0.00 | 0.00 | 94 | 1012.7 |
| 20260902034326 | 20 | 202 | 0.0 | 0.0 | 0.00 | 0.00 | 0.00 | 94 | 1012.7 |
| 20260902034254 | 20 | 202 | 0.0 | 0.0 | 0.00 | 0.00 | 0.00 | 94 | 1012.7 |
| 20260902034029 | 20 | 202 | 0.0 | 0.0 | 0.00 | 0.00 | 0.00 | 94 | 1012.8 |
| 20260902033829 | 20 | 200 | 0.0 | 0.0 | 0.00 | 0.00 | 0.00 | 94 | 1012.8 |
| 20260902033752 | 20 | 202 | 0.0 | 0.0 | 0.00 | 0.00 | 0.00 | 94 | 1012.9 |
| 20260902033630 | 20 | 202 | 0.0 | 0.0 | 0.00 | 0.00 | 0.00 | 94 | 1012.9 |
| 20260902033434 | 20 | 200 | 0.0 | 0.0 | 0.00 | 0.00 | 0.00 | 94 | 1013.1 |
| 20260902033326 | 20 | 200 | 0.0 | 0.0 | 0.00 | 0.00 | 0.00 | 94 | 1013.1 |
| 20260902033251 | 20 | 202 | 0.0 | 0.0 | 0.00 | 0.00 | 0.00 | 94 | 1013.1 |
| 20260902033027 | 20 | 202 | 0.0 | 0.0 | 0.00 | 0.00 | 0.00 | 94 | 1013.3 |
| 20260902032925 | 20 | 202 | 0.0 | 0.0 | 0.00 | 0.00 | 0.00 | 94 | 1013.3 |
| 20260902032752 | 20 | 202 | 0.0 | 0.0 | 0.00 | 0.00 | 0.00 | 94 | 1013.3 |
| 20260902032626 | 20 | 202 | 0.0 | 0.0 | 0.00 | 0.00 | 0.00 | 94 | 1013.4 |
| 20260902032424 | 20 | 202 | 0.0 | 0.0 | 0.00 | 0.00 | 0.00 | 94 | 1013.5 |
| 20260902032224 | 20 | 202 | 0.0 | 0.0 | 0.00 | 0.00 | 0.00 | 94 | 1013.6 |
| 20260902032022 | 20 | 200 | 0.0 | 0.0 | 0.00 | 0.00 | 0.00 | 94 | 1013.6 |
| 20260902031920 | 20 | 202 | 0.0 | 0.0 | 0.00 | 0.00 | 0.00 | 94 | 1013.6 |
| 20260902031748 | 20 | 200 | 0.0 | 0.0 | 0.00 | 0.00 | 0.00 | 94 | 1013.5 |
| 20260902031627 | 21 | 202 | 0.0 | 0.0 | 0.00 | 0.00 | 0.00 | 93 | 1013.6 |
| 20260902031622 | 21 | 200 | 0.0 | 0.0 | 0.00 | 0.00 | 0.00 | 94 | 1013.6 |
| 20260902031541 | 21 | 200 | 0.0 | 0.0 | 0.00 | 0.00 | 0.00 | 93 | 1013.6 |
| 20260902031220 | 21 | 200 | 0.0 | 0.0 | 0.00 | 0.00 | 0.00 | 93 | 1013.6 |
| 20260902031050 | 21 | 202 | 0.0 | 0.0 | 0.00 | 0.00 | 0.00 | 93 | 1013.6 |
| 20260902031042 | 21 | 202 | 0.0 | 0.0 | 0.00 | 0.00 | 0.00 | 94 | 1013.6 |
| 20260902031013 | 21 | 202 | 0.0 | 0.0 | 0.00 | 0.00 | 0.00 | 94 | 1013.6 |
| 20260902030617 | 21 | 202 | 0.0 | 0.0 | 0.00 | 0.00 | 0.00 | 93 | 1013.5 |
| 20260902030417 | 21 | 202 | 0.0 | 0.0 | 0.00 | 0.00 | 0.00 | 93 | 1013.5 |
| 20260902030246 | 21 | 200 | 0.0 | 0.0 | 0.00 | 0.00 | 0.00 | 93 | 1013.5 |
| 20260902030216 | 21 | 202 | 0.0 | 0.0 | 0.00 | 0.00 | 0.00 | 93 | 1013.5 |
| 20260902030105 | 21 | 200 | 0.0 | 0.0 | 0.00 | 0.00 | 0.00 | 93 | 1013.5 |
| 20260902030048 | 21 | 202 | 0.0 | 0.0 | 0.00 | 0.00 | 0.00 | 93 | 1013.5 |
| 20260902030005 | 21 | 200 | 0.0 | 0.0 | 0.00 | 0.00 | 0.00 | 93 | 1013.5 |
| 20260902025412 | 21 | 202 | 0.0 | 0.0 | 0.00 | 0.00 | 0.00 | 93 | 1013.4 |
| 20260902025247 | 21 | 199 | 0.0 | 0.0 | 0.00 | 0.00 | 0.00 | 93 | 1013.3 |
| 20260902025211 | 21 | 200 | 0.0 | 0.0 | 0.00 | 0.00 | 0.00 | 93 | 1013.3 |
| 20260902025052 | 21 | 200 | 0.0 | 0.0 | 0.00 | 0.00 | 0.00 | 92 | 1013.2 |
| 20260902025038 | 21 | 202 | 0.0 | 0.0 | 0.00 | 0.00 | 0.00 | 92 | 1013.3 |
| 20260902025006 | 21 | 200 | 0.0 | 0.0 | 0.00 | 0.00 | 0.00 | 92 | 1013.3 |
| 20260902024610 | 21 | 202 | 0.0 | 0.0 | 0.00 | 0.00 | 0.00 | 93 | 1013.2 |
| 20260902024409 | 21 | 200 | 0.0 | 0.0 | 0.00 | 0.00 | 0.00 | 92 | 1013.2 |
| 20260902024359 | 21 | 202 | 0.0 | 0.0 | 0.00 | 0.00 | 0.00 | 92 | 1013.3 |
| 20260902024246 | 21 | 202 | 0.0 | 0.0 | 0.00 | 0.00 | 0.00 | 92 | 1013.3 |
| 20260902024013 | 21 | 202 | 0.0 | 0.0 | 0.00 | 0.00 | 0.00 | 92 | 1013.3 |
| 20260902023810 | 21 | 200 | 0.0 | 0.0 | 0.00 | 0.00 | 0.00 | 92 | 1013.2 |
| 20260902023746 | 21 | 203 | 0.0 | 0.0 | 0.00 | 0.00 | 0.00 | 92 | 1013.2 |
| 20260902023606 | 21 | 200 | 0.0 | 0.0 | 0.00 | 0.00 | 0.00 | 92 | 1013.2 |
| 20260902023405 | 21 | 200 | 0.0 | 0.0 | 0.00 | 0.00 | 0.00 | 92 | 1013.3 |
| 20260902023247 | 21 | 200 | 0.0 | 0.0 | 0.00 | 0.00 | 0.00 | 92 | 1013.2 |
| 20260902023203 | 21 | 202 | 0.0 | 0.0 | 0.00 | 0.00 | 0.00 | 92 | 1013.3 |
| 20260902023125 | 21 | 202 | 0.0 | 0.0 | 0.00 | 0.00 | 0.00 | 92 | 1013.4 |
| 20260902023053 | 21 | 200 | 0.0 | 0.0 | 0.00 | 0.00 | 0.00 | 92 | 1013.3 |
| 20260902023033 | 21 | 202 | 0.0 | 0.0 | 0.00 | 0.00 | 0.00 | 92 | 1013.3 |
| 20260902022604 | 21 | 200 | 0.0 | 0.0 | 0.00 | 0.00 | 0.00 | 92 | 1013.2 |
| 20260902022402 | 21 | 200 | 0.0 | 0.0 | 0.00 | 0.00 | 0.00 | 92 | 1013.1 |
| 20260902022237 | 21 | 200 | 0.0 | 0.0 | 0.00 | 0.00 | 0.00 | 92 | 1013.2 |
| 20260902022124 | 21 | 203 | 0.0 | 0.0 | 0.00 | 0.00 | 0.00 | 92 | 1013.1 |
| 20260902022035 | 21 | 202 | 0.0 | 0.0 | 0.00 | 0.00 | 0.00 | 92 | 1013.2 |
| 20260902021955 | 21 | 200 | 0.0 | 0.0 | 0.00 | 0.00 | 0.00 | 92 | 1013.2 |
| 20260902021602 | 21 | 203 | 0.0 | 0.0 | 0.00 | 0.00 | 0.00 | 91 | 1013.2 |
| 20260902021402 | 21 | 200 | 0.0 | 0.0 | 0.00 | 0.00 | 0.00 | 91 | 1013.3 |
| 20260902021238 | 21 | 200 | 0.0 | 0.0 | 0.00 | 0.00 | 0.00 | 91 | 1013.3 |
| 20260902021201 | 21 | 200 | 0.0 | 0.0 | 0.00 | 0.00 | 0.00 | 91 | 1013.3 |
| 20260902021053 | 21 | 200 | 0.0 | 0.0 | 0.00 | 0.00 | 0.00 | 91 | 1013.3 |
| 20260902021034 | 21 | 203 | 0.0 | 0.0 | 0.00 | 0.00 | 0.00 | 91 | 1013.3 |
| 20260902021021 | 21 | 202 | 0.0 | 0.0 | 0.00 | 0.00 | 0.00 | 91 | 1013.3 |
| 20260902020656 | 21 | 203 | 0.0 | 0.0 | 0.00 | 0.00 | 0.00 | 91 | 1013.4 |
| 20260902020358 | 21 | 202 | 0.0 | 0.0 | 0.00 | 0.00 | 0.00 | 91 | 1013.4 |
| 20260902020235 | 21 | 202 | 0.0 | 0.0 | 0.00 | 0.00 | 0.00 | 91 | 1013.3 |
| 20260902020156 | 21 | 200 | 0.0 | 0.0 | 0.00 | 0.00 | 0.00 | 91 | 1013.4 |
| 20260902015957 | 22 | 200 | 0.0 | 0.0 | 0.00 | 0.00 | 0.00 | 91 | 1013.4 |
| 20260902015752 | 22 | 200 | 0.0 | 0.0 | 0.00 | 0.00 | 0.00 | 91 | 1013.3 |
| 20260902015730 | 22 | 202 | 0.0 | 0.0 | 0.00 | 0.00 | 0.00 | 91 | 1013.3 |
| 20260902015552 | 22 | 200 | 0.0 | 0.0 | 0.00 | 0.00 | 0.00 | 91 | 1013.3 |
| 20260902015454 | 22 | 202 | 0.0 | 0.0 | 0.00 | 0.00 | 0.00 | 91 | 1013.4 |
| 20260902015250 | 22 | 202 | 0.0 | 0.0 | 0.00 | 0.00 | 0.00 | 91 | 1013.3 |
| 20260902015231 | 22 | 202 | 0.0 | 0.0 | 0.00 | 0.00 | 0.00 | 90 | 1013.3 |
| 20260902014951 | 22 | 200 | 0.0 | 0.0 | 0.00 | 0.00 | 0.00 | 91 | 1013.3 |
| 20260902014750 | 22 | 200 | 0.0 | 0.0 | 0.00 | 0.00 | 0.00 | 90 | 1013.2 |
| 20260902014732 | 22 | 202 | 0.0 | 0.0 | 0.00 | 0.00 | 0.00 | 90 | 1013.2 |
| 20260902014550 | 22 | 202 | 0.0 | 0.0 | 0.00 | 0.00 | 0.00 | 90 | 1013.1 |
| 20260902014350 | 22 | 202 | 0.0 | 0.0 | 0.00 | 0.00 | 0.00 | 90 | 1013.1 |
| 20260902014232 | 22 | 202 | 0.0 | 0.0 | 0.00 | 0.00 | 0.00 | 90 | 1013.0 |
| 20260902014149 | 22 | 202 | 0.0 | 0.0 | 0.00 | 0.00 | 0.00 | 90 | 1013.0 |
| 20260902013950 | 22 | 200 | 0.0 | 0.0 | 0.00 | 0.00 | 0.00 | 90 | 1013.0 |
| 20260902013723 | 22 | 202 | 0.0 | 0.0 | 0.00 | 0.00 | 0.00 | 90 | 1013.0 |
| 20260902013647 | 22 | 200 | 0.0 | 0.0 | 0.00 | 0.00 | 0.00 | 90 | 1013.0 |
| 20260902013443 | 22 | 202 | 0.0 | 0.0 | 0.00 | 0.00 | 0.00 | 90 | 1013.0 |
| 20260902013223 | 22 | 200 | 0.0 | 0.0 | 0.00 | 0.00 | 0.00 | 89 | 1013.0 |
| 20260902013144 | 22 | 200 | 0.0 | 0.0 | 0.00 | 0.00 | 0.00 | 89 | 1013.1 |
| 20260902012946 | 22 | 202 | 0.0 | 0.0 | 0.00 | 0.00 | 0.00 | 89 | 1013.0 |
| 20260902012743 | 22 | 202 | 0.0 | 0.0 | 0.00 | 0.00 | 0.00 | 89 | 1013.1 |
| 20260902012722 | 22 | 200 | 0.0 | 0.0 | 0.00 | 0.00 | 0.00 | 89 | 1013.1 |
| 20260902012543 | 22 | 202 | 0.0 | 0.0 | 0.00 | 0.00 | 0.00 | 89 | 1013.0 |
| 20260902012343 | 22 | 202 | 0.0 | 0.0 | 0.00 | 0.00 | 0.00 | 89 | 1013.1 |
| 20260902012240 | 23 | 202 | 0.0 | 0.0 | 0.00 | 0.00 | 0.00 | 88 | 1013.0 |
| 20260902012213 | 23 | 200 | 0.0 | 0.0 | 0.00 | 0.00 | 0.00 | 88 | 1013.0 |
| 20260902012045 | 23 | 200 | 0.0 | 0.0 | 0.00 | 0.00 | 0.00 | 88 | 1012.9 |
| 20260902011741 | 23 | 200 | 0.0 | 0.0 | 0.00 | 0.00 | 0.00 | 88 | 1013.0 |
| 20260902011712 | 23 | 199 | 0.0 | 0.0 | 0.00 | 0.00 | 0.00 | 88 | 1013.0 |
| 20260902011541 | 23 | 200 | 0.0 | 0.0 | 0.00 | 0.00 | 0.00 | 88 | 1013.0 |
| 20260902011456 | 23 | 200 | 0.0 | 0.0 | 0.00 | 0.00 | 0.00 | 87 | 1013.0 |
| 20260902011439 | 23 | 202 | 0.0 | 0.0 | 0.00 | 0.00 | 0.00 | 87 | 1013.0 |
| 20260902011140 | 23 | 202 | 0.0 | 0.0 | 0.00 | 0.00 | 0.00 | 87 | 1013.0 |
| 20260902010939 | 23 | 202 | 0.0 | 0.0 | 0.00 | 0.00 | 0.00 | 87 | 1012.9 |
| 20260902010838 | 23 | 200 | 0.0 | 0.0 | 0.00 | 0.00 | 0.00 | 87 | 1012.9 |
| 20260902010706 | 23 | 202 | 0.0 | 0.0 | 0.00 | 0.00 | 0.00 | 87 | 1012.9 |
| 20260902010638 | 23 | 200 | 0.0 | 0.0 | 0.00 | 0.00 | 0.00 | 87 | 1012.9 |
| 20260902010336 | 23 | 200 | 0.0 | 0.0 | 0.00 | 0.00 | 0.00 | 86 | 1012.8 |
| 20260902010231 | 23 | 200 | 0.0 | 0.0 | 0.00 | 0.00 | 0.00 | 86 | 1012.9 |
| 20260902010205 | 23 | 200 | 0.0 | 0.0 | 0.00 | 0.00 | 0.00 | 86 | 1012.9 |
| 20260902005935 | 23 | 202 | 0.0 | 0.0 | 0.00 | 0.00 | 0.00 | 86 | 1012.9 |
| 20260902005834 | 24 | 202 | 0.0 | 0.0 | 0.00 | 0.00 | 0.00 | 86 | 1012.9 |
| 20260902005705 | 24 | 200 | 0.0 | 0.0 | 0.00 | 0.00 | 0.00 | 86 | 1012.9 |
| 20260902005535 | 24 | 202 | 0.0 | 0.0 | 0.00 | 0.00 | 0.00 | 86 | 1012.8 |
| 20260902005333 | 24 | 202 | 0.0 | 0.0 | 0.00 | 0.00 | 0.00 | 85 | 1012.9 |
| 20260902005205 | 24 | 203 | 0.0 | 0.0 | 0.00 | 0.00 | 0.00 | 85 | 1012.9 |
| 20260902005133 | 24 | 200 | 0.0 | 0.0 | 0.00 | 0.00 | 0.00 | 85 | 1012.9 |
| 20260902004933 | 24 | 200 | 0.0 | 0.0 | 0.00 | 0.00 | 0.00 | 85 | 1012.9 |
| 20260902004834 | 24 | 200 | 0.0 | 0.0 | 0.00 | 0.00 | 0.00 | 85 | 1012.9 |
| 20260902004704 | 24 | 200 | 0.0 | 0.0 | 0.00 | 0.00 | 0.00 | 85 | 1012.9 |
| 20260902004530 | 24 | 202 | 0.0 | 0.0 | 0.00 | 0.00 | 0.00 | 85 | 1012.9 |
| 20260902004435 | 24 | 202 | 0.0 | 0.0 | 0.00 | 0.00 | 0.00 | 84 | 1012.9 |
| 20260902004203 | 25 | 202 | 0.0 | 0.0 | 0.00 | 0.00 | 0.00 | 84 | 1012.9 |
| 20260902004131 | 25 | 202 | 0.0 | 0.0 | 0.00 | 0.00 | 0.00 | 84 | 1012.9 |
| 20260902003932 | 25 | 202 | 0.0 | 0.0 | 0.00 | 0.00 | 0.00 | 84 | 1012.9 |
| 20260902003730 | 25 | 203 | 0.0 | 0.0 | 0.00 | 0.00 | 0.00 | 84 | 1012.9 |
| 20260902003704 | 25 | 200 | 0.0 | 0.0 | 0.00 | 0.00 | 0.00 | 84 | 1012.9 |
| 20260902003532 | 25 | 200 | 0.0 | 0.0 | 0.00 | 0.00 | 0.00 | 84 | 1012.8 |
| 20260902003426 | 25 | 202 | 0.0 | 0.0 | 0.00 | 0.00 | 0.00 | 83 | 1012.7 |
| 20260902003203 | 25 | 200 | 0.0 | 0.0 | 0.00 | 0.00 | 0.00 | 83 | 1012.9 |
| 20260902003133 | 25 | 202 | 0.0 | 0.0 | 0.00 | 0.00 | 0.00 | 83 | 1012.9 |
| 20260902003034 | 25 | 202 | 0.0 | 0.0 | 0.00 | 0.00 | 0.00 | 83 | 1012.8 |
| 20260902002734 | 25 | 202 | 0.0 | 0.0 | 0.00 | 0.00 | 0.00 | 83 | 1012.9 |
| 20260902002704 | 25 | 200 | 0.0 | 0.0 | 0.00 | 0.00 | 0.00 | 82 | 1012.8 |
| 20260902002534 | 25 | 199 | 0.0 | 0.0 | 0.00 | 0.00 | 0.00 | 82 | 1012.9 |
| 20260902002321 | 25 | 200 | 0.0 | 0.0 | 0.00 | 0.00 | 0.00 | 82 | 1013.0 |
| 20260902002317 | 25 | 202 | 0.0 | 0.0 | 0.00 | 0.00 | 0.00 | 82 | 1012.9 |
| 20260902002203 | 25 | 202 | 0.0 | 0.0 | 0.00 | 0.00 | 0.00 | 82 | 1013.0 |
| 20260902001919 | 25 | 203 | 0.0 | 0.0 | 0.00 | 0.00 | 0.00 | 82 | 1012.9 |
| 20260902001716 | 25 | 202 | 0.0 | 0.0 | 0.00 | 0.00 | 0.00 | 81 | 1013.0 |
| 20260902001703 | 25 | 202 | 0.0 | 0.0 | 0.00 | 0.00 | 0.00 | 81 | 1013.1 |
| 20260902001517 | 25 | 200 | 0.0 | 0.0 | 0.00 | 0.00 | 0.00 | 81 | 1013.0 |
| 20260902001315 | 25 | 202 | 0.0 | 0.0 | 0.00 | 0.00 | 0.00 | 79 | 1013.1 |
| 20260902001203 | 25 | 202 | 0.0 | 0.0 | 0.00 | 0.00 | 0.00 | 79 | 1013.0 |
| 20260902001115 | 25 | 200 | 0.0 | 0.0 | 0.00 | 0.00 | 0.00 | 79 | 1013.0 |
| 20260902000921 | 26 | 202 | 0.0 | 0.0 | 0.00 | 0.00 | 0.00 | 79 | 1013.2 |
| 20260902000915 | 26 | 202 | 0.0 | 0.0 | 0.00 | 0.00 | 0.00 | 79 | 1013.1 |
| 20260902000708 | 26 | 200 | 0.0 | 0.0 | 0.00 | 0.00 | 0.00 | 79 | 1013.2 |
| 20260902000513 | 26 | 202 | 0.0 | 0.0 | 0.00 | 0.00 | 0.00 | 79 | 1013.2 |
| 20260902000313 | 26 | 202 | 0.0 | 0.0 | 0.00 | 0.00 | 0.00 | 79 | 1013.3 |
| 20260902000207 | 26 | 202 | 0.0 | 0.0 | 0.00 | 0.00 | 0.00 | 78 | 1013.1 |
| 20260902000111 | 26 | 200 | 0.0 | 0.0 | 0.00 | 0.00 | 0.00 | 79 | 1013.1 |
| 20260901235911 | 26 | 200 | 0.0 | 0.0 | 0.00 | 0.00 | 0.00 | 78 | 1013.2 |
| 20260901235715 | 26 | 202 | 0.0 | 0.0 | 0.00 | 0.00 | 0.00 | 78 | 1013.2 |
| 20260901235709 | 26 | 200 | 0.0 | 0.0 | 0.00 | 0.00 | 0.00 | 78 | 1013.2 |
| 20260901235514 | 26 | 200 | 0.0 | 0.0 | 0.00 | 0.00 | 0.00 | 78 | 1013.3 |
| 20260901235509 | 26 | 200 | 0.0 | 0.0 | 0.00 | 0.00 | 0.00 | 79 | 1013.2 |
| 20260901235219 | 26 | 202 | 0.0 | 0.0 | 0.00 | 0.00 | 0.00 | 78 | 1013.3 |
| 20260901235111 | 26 | 200 | 0.0 | 0.0 | 0.00 | 0.00 | 0.00 | 78 | 1013.3 |
| 20260901235009 | 26 | 202 | 0.0 | 0.0 | 0.00 | 0.00 | 0.00 | 79 | 1013.2 |
| 20260901234954 | 26 | 200 | 0.0 | 0.0 | 0.00 | 0.00 | 0.00 | 79 | 1013.3 |
| 20260901234922 | 26 | 200 | 0.0 | 0.0 | 0.00 | 0.00 | 0.00 | 79 | 1013.2 |
| 20260901234507 | 26 | 202 | 0.0 | 0.0 | 0.00 | 0.00 | 0.00 | 78 | 1013.2 |
| 20260901234307 | 26 | 202 | 0.0 | 0.0 | 0.00 | 0.00 | 0.00 | 78 | 1013.2 |
| 20260901234206 | 26 | 202 | 0.0 | 0.0 | 0.00 | 0.00 | 0.00 | 78 | 1013.3 |
| 20260901234106 | 26 | 202 | 0.0 | 0.0 | 0.00 | 0.00 | 0.00 | 78 | 1013.3 |
| 20260901233907 | 26 | 202 | 0.0 | 0.0 | 0.00 | 0.00 | 0.00 | 78 | 1013.2 |
| 20260901233817 | 26 | 202 | 0.0 | 0.0 | 0.00 | 0.00 | 0.00 | 78 | 1013.3 |
| 20260901233708 | 26 | 202 | 0.0 | 0.0 | 0.00 | 0.00 | 0.00 | 78 | 1013.3 |
| 20260901233508 | 26 | 202 | 0.0 | 0.0 | 0.00 | 0.00 | 0.00 | 77 | 1013.2 |
| 20260901233408 | 27 | 200 | 0.0 | 0.0 | 0.00 | 0.00 | 0.00 | 77 | 1013.2 |
| 20260901233207 | 27 | 202 | 0.0 | 0.0 | 0.00 | 0.00 | 0.00 | 77 | 1013.2 |
| 20260901233106 | 27 | 202 | 0.0 | 0.0 | 0.00 | 0.00 | 0.00 | 76 | 1013.1 |
| 20260901232906 | 26 | 202 | 0.0 | 0.0 | 0.00 | 0.00 | 0.00 | 75 | 1013.2 |
| 20260901232724 | 26 | 202 | 0.0 | 0.0 | 0.00 | 0.00 | 0.00 | 75 | 1013.2 |
| 20260901232507 | 27 | 202 | 0.0 | 0.0 | 0.00 | 0.00 | 0.00 | 75 | 1013.2 |
| 20260901232406 | 27 | 202 | 0.0 | 0.0 | 0.00 | 0.00 | 0.00 | 75 | 1013.2 |
| 20260901232209 | 27 | 202 | 0.0 | 0.0 | 0.00 | 0.00 | 0.00 | 74 | 1013.2 |
| 20260901232107 | 27 | 200 | 0.0 | 0.0 | 0.00 | 0.00 | 0.00 | 74 | 1013.2 |
| 20260901232005 | 27 | 202 | 0.0 | 0.0 | 0.00 | 0.00 | 0.00 | 75 | 1013.2 |
| 20260901231707 | 27 | 200 | 0.0 | 0.0 | 0.00 | 0.00 | 0.00 | 75 | 1013.2 |
| 20260901231506 | 27 | 200 | 0.0 | 0.0 | 0.00 | 0.00 | 0.00 | 74 | 1013.2 |
| 20260901231306 | 27 | 202 | 0.0 | 0.0 | 0.00 | 0.00 | 0.00 | 74 | 1013.2 |
| 20260901231208 | 27 | 202 | 0.0 | 0.0 | 0.00 | 0.00 | 0.00 | 74 | 1013.2 |
| 20260901231106 | 27 | 200 | 0.0 | 0.0 | 0.00 | 0.00 | 0.00 | 74 | 1013.2 |
| 20260901231009 | 27 | 200 | 0.0 | 0.0 | 0.00 | 0.00 | 0.00 | 74 | 1013.3 |
| 20260901230707 | 27 | 200 | 0.0 | 0.0 | 0.00 | 0.00 | 0.00 | 74 | 1013.2 |
| 20260901230606 | 27 | 200 | 0.0 | 0.0 | 0.00 | 0.00 | 0.00 | 74 | 1013.2 |
| 20260901230306 | 27 | 200 | 0.0 | 0.0 | 0.00 | 0.00 | 0.00 | 74 | 1013.2 |
| 20260901230206 | 27 | 202 | 0.0 | 0.0 | 0.00 | 0.00 | 0.00 | 74 | 1013.2 |
| 20260901230107 | 27 | 200 | 0.0 | 0.0 | 0.00 | 0.00 | 0.00 | 74 | 1013.2 |
| 20260901230053 | 27 | 202 | 0.0 | 0.0 | 0.00 | 0.00 | 0.00 | 75 | 1013.2 |
| 20260901230006 | 27 | 200 | 0.0 | 0.0 | 0.00 | 0.00 | 0.00 | 76 | 1013.2 |
| 20260901225921 | 27 | 200 | 0.0 | 0.0 | 0.00 | 0.00 | 0.00 | 76 | 1013.2 |
| 20260901225608 | 27 | 200 | 0.0 | 0.0 | 0.00 | 0.00 | 0.00 | 76 | 1013.2 |
| 20260901225306 | 27 | 202 | 0.0 | 0.0 | 0.00 | 0.00 | 0.00 | 76 | 1013.1 |
| 20260901225206 | 27 | 200 | 0.0 | 0.0 | 0.00 | 0.00 | 0.00 | 76 | 1013.1 |
| 20260901225106 | 27 | 200 | 0.0 | 0.0 | 0.00 | 0.00 | 0.00 | 75 | 1013.1 |
| 20260901225001 | 27 | 202 | 0.0 | 0.0 | 0.00 | 0.00 | 0.00 | 76 | 1013.2 |
| 20260901224950 | 27 | 202 | 0.0 | 0.0 | 0.00 | 0.00 | 0.00 | 75 | 1013.1 |
| 20260901224921 | 27 | 202 | 0.0 | 0.0 | 0.00 | 0.00 | 0.00 | 76 | 1013.2 |
| 20260901224608 | 27 | 200 | 0.0 | 0.0 | 0.00 | 0.00 | 0.00 | 75 | 1013.1 |
| 20260901224306 | 27 | 202 | 0.0 | 0.0 | 0.00 | 0.00 | 0.00 | 75 | 1013.1 |
| 20260901224219 | 27 | 202 | 0.0 | 0.0 | 0.00 | 0.00 | 0.00 | 74 | 1013.2 |
| 20260901224206 | 27 | 200 | 0.0 | 0.0 | 0.00 | 0.00 | 0.00 | 75 | 1013.1 |
| 20260901223958 | 27 | 200 | 0.0 | 0.0 | 0.00 | 0.00 | 0.00 | 72 | 1013.3 |
| 20260901223947 | 27 | 199 | 0.0 | 0.0 | 0.00 | 0.00 | 0.00 | 72 | 1013.1 |
| 20260901223921 | 27 | 200 | 0.0 | 0.0 | 0.00 | 0.00 | 0.00 | 72 | 1013.3 |
| 20260901223508 | 27 | 202 | 0.0 | 0.0 | 0.00 | 0.00 | 0.00 | 73 | 1013.3 |
| 20260901223306 | 27 | 200 | 0.0 | 0.0 | 0.00 | 0.00 | 0.00 | 73 | 1013.2 |
| 20260901223215 | 27 | 200 | 0.0 | 0.0 | 0.00 | 0.00 | 0.00 | 74 | 1013.2 |
| 20260901223206 | 27 | 199 | 0.0 | 0.0 | 0.00 | 0.00 | 0.00 | 75 | 1013.2 |
| 20260901222955 | 27 | 199 | 0.0 | 0.0 | 0.00 | 0.00 | 0.00 | 73 | 1013.3 |
| 20260901222944 | 27 | 202 | 0.0 | 0.0 | 0.00 | 0.00 | 0.00 | 74 | 1013.3 |
| 20260901222507 | 27 | 200 | 0.0 | 0.0 | 0.00 | 0.00 | 0.00 | 72 | 1013.2 |
| 20260901222457 | 27 | 200 | 0.0 | 0.0 | 0.00 | 0.00 | 0.00 | 73 | 1013.2 |
| 20260901222436 | 27 | 200 | 0.0 | 0.0 | 0.00 | 0.00 | 0.00 | 73 | 1013.2 |
| 20260901222107 | 27 | 200 | 0.0 | 0.0 | 0.00 | 0.00 | 0.00 | 74 | 1013.3 |
| 20260901222006 | 27 | 200 | 0.0 | 0.0 | 0.00 | 0.00 | 0.00 | 74 | 1013.2 |
| 20260901221715 | 27 | 200 | 0.0 | 0.0 | 0.00 | 0.00 | 0.00 | 75 | 1013.2 |
| 20260901221606 | 27 | 202 | 0.0 | 0.0 | 0.00 | 0.00 | 0.00 | 76 | 1013.2 |
| 20260901221452 | 27 | 200 | 0.0 | 0.0 | 0.00 | 0.00 | 0.00 | 74 | 1013.2 |
| 20260901221432 | 27 | 200 | 0.0 | 0.0 | 0.00 | 0.00 | 0.00 | 74 | 1013.2 |
| 20260901221107 | 27 | 200 | 0.0 | 0.0 | 0.00 | 0.00 | 0.00 | 74 | 1013.3 |
| 20260901220903 | 27 | 200 | 0.0 | 0.0 | 0.00 | 0.00 | 0.00 | 75 | 1013.1 |
| 20260901220717 | 27 | 200 | 0.0 | 0.0 | 0.00 | 0.00 | 0.00 | 74 | 1013.2 |
| 20260901220608 | 27 | 202 | 0.0 | 0.0 | 0.00 | 0.00 | 0.00 | 75 | 1013.1 |
| 20260901220507 | 27 | 200 | 0.0 | 0.0 | 0.00 | 0.00 | 0.00 | 72 | 1013.2 |
| 20260901220458 | 27 | 200 | 0.0 | 0.0 | 0.00 | 0.00 | 0.00 | 72 | 1013.2 |
| 20260901220434 | 27 | 200 | 0.0 | 0.0 | 0.00 | 0.00 | 0.00 | 72 | 1013.2 |
| 20260901215903 | 28 | 200 | 0.0 | 0.0 | 0.00 | 0.00 | 0.00 | 72 | 1013.1 |
| 20260901215704 | 28 | 202 | 0.0 | 0.0 | 0.00 | 0.00 | 0.00 | 71 | 1013.1 |
| 20260901215525 | 28 | 200 | 0.0 | 0.0 | 0.00 | 0.00 | 0.00 | 73 | 1013.1 |
| 20260901215520 | 28 | 202 | 0.0 | 0.0 | 0.00 | 0.00 | 0.00 | 72 | 1013.1 |
| 20260901215514 | 28 | 202 | 0.0 | 0.0 | 0.00 | 0.00 | 0.00 | 72 | 1013.1 |
| 20260901215446 | 28 | 200 | 0.0 | 0.0 | 0.00 | 0.00 | 0.00 | 73 | 1013.1 |
| 20260901214907 | 28 | 200 | 0.0 | 0.0 | 0.00 | 0.00 | 0.00 | 72 | 1013.2 |
| 20260901214811 | 28 | 200 | 0.0 | 0.0 | 0.00 | 0.00 | 0.00 | 71 | 1013.1 |
| 20260901214709 | 28 | 200 | 0.0 | 0.0 | 0.00 | 0.00 | 0.00 | 71 | 1013.1 |
| 20260901214507 | 28 | 200 | 0.0 | 0.0 | 0.00 | 0.00 | 0.00 | 69 | 1013.1 |
| 20260901214307 | 28 | 200 | 0.0 | 0.0 | 0.00 | 0.00 | 0.00 | 70 | 1013.1 |
| 20260901214219 | 28 | 199 | 0.0 | 0.0 | 0.00 | 0.00 | 0.00 | 70 | 1013.1 |
| 20260901214106 | 28 | 200 | 0.0 | 0.0 | 0.00 | 0.00 | 0.00 | 69 | 1013.1 |
| 20260901214022 | 28 | 200 | 0.0 | 3.2 | 0.00 | 0.00 | 0.00 | 71 | 1013.1 |
| 20260901213957 | 28 | 200 | 0.0 | 1.6 | 0.00 | 0.00 | 0.00 | 69 | 1013.1 |
| 20260901213933 | 28 | 200 | 0.0 | 3.2 | 0.00 | 0.00 | 0.00 | 71 | 1013.1 |
| 20260901213506 | 28 | 200 | 0.0 | 6.4 | 0.00 | 0.00 | 0.00 | 70 | 1013.2 |
| 20260901213307 | 28 | 200 | 0.0 | 6.4 | 0.00 | 0.00 | 0.00 | 66 | 1013.1 |
| 20260901213208 | 28 | 200 | 0.0 | 6.4 | 0.00 | 0.00 | 0.00 | 66 | 1013.0 |
| 20260901213107 | 28 | 200 | 0.0 | 6.4 | 0.00 | 0.00 | 0.00 | 66 | 1013.1 |
| 20260901213046 | 28 | 202 | 0.0 | 6.4 | 0.00 | 0.00 | 0.00 | 68 | 1013.1 |
| 20260901212955 | 28 | 200 | 0.0 | 6.4 | 0.00 | 0.00 | 0.00 | 64 | 1013.1 |
| 20260901212507 | 28 | 206 | 0.0 | 3.2 | 0.00 | 0.00 | 0.00 | 66 | 1013.1 |
| 20260901212307 | 29 | 204 | 0.0 | 3.2 | 0.00 | 0.00 | 0.00 | 67 | 1013.1 |
| 20260901212209 | 28 | 203 | 0.0 | 3.2 | 0.00 | 0.00 | 0.00 | 67 | 1013.1 |
| 20260901212106 | 28 | 206 | 0.0 | 3.2 | 0.00 | 0.00 | 0.00 | 65 | 1013.0 |
| 20260901211958 | 28 | 204 | 0.0 | 3.2 | 0.00 | 0.00 | 0.00 | 69 | 1013.1 |
| 20260901211947 | 28 | 204 | 0.0 | 3.2 | 0.00 | 0.00 | 0.00 | 65 | 1013.2 |
| 20260901211920 | 28 | 204 | 0.0 | 3.2 | 0.00 | 0.00 | 0.00 | 69 | 1013.1 |
| 20260901211516 | 28 | 206 | 0.0 | 4.8 | 0.00 | 0.00 | 0.00 | 72 | 1013.1 |
| 20260901211507 | 28 | 204 | 0.0 | 4.8 | 0.00 | 0.00 | 0.00 | 69 | 1013.1 |
| 20260901211206 | 28 | 206 | 0.0 | 4.8 | 0.00 | 0.00 | 0.00 | 70 | 1013.1 |
| 20260901211106 | 28 | 203 | 0.0 | 4.8 | 0.00 | 0.00 | 0.00 | 70 | 1013.1 |
| 20260901210906 | 28 | 204 | 0.0 | 4.8 | 0.00 | 0.00 | 0.00 | 68 | 1013.2 |
| 20260901210720 | 28 | 204 | 0.0 | 4.8 | 0.00 | 0.00 | 0.00 | 65 | 1013.2 |
| 20260901210506 | 28 | 203 | 0.0 | 4.8 | 0.00 | 0.00 | 0.00 | 66 | 1013.2 |
| 20260901210306 | 28 | 204 | 0.0 | 4.8 | 0.00 | 0.00 | 0.00 | 66 | 1013.2 |
| 20260901210207 | 28 | 206 | 0.0 | 4.8 | 0.00 | 0.00 | 0.00 | 66 | 1013.2 |
| 20260901210106 | 28 | 206 | 0.0 | 4.8 | 0.00 | 0.00 | 0.00 | 67 | 1013.2 |
| 20260901205906 | 28 | 204 | 0.0 | 4.8 | 0.00 | 0.00 | 0.00 | 66 | 1013.3 |
| 20260901205707 | 28 | 204 | 0.0 | 4.8 | 0.00 | 0.00 | 0.00 | 66 | 1013.2 |
| 20260901205533 | 27 | 204 | 0.0 | 4.8 | 0.00 | 0.00 | 0.00 | 66 | 1013.2 |
| 20260901205506 | 28 | 204 | 0.0 | 4.8 | 0.00 | 0.00 | 0.00 | 65 | 1013.2 |
| 20260901205452 | 27 | 203 | 0.0 | 3.2 | 0.00 | 0.00 | 0.00 | 66 | 1013.1 |
| 20260901205106 | 27 | 206 | 0.0 | 1.6 | 0.00 | 0.00 | 0.00 | 69 | 1013.1 |
| 20260901205008 | 27 | 203 | 0.0 | 0.0 | 0.00 | 0.00 | 0.00 | 69 | 1013.2 |
| 20260901204708 | 27 | 203 | 0.0 | 0.0 | 0.00 | 0.00 | 0.00 | 69 | 1013.1 |
| 20260901204512 | 27 | 203 | 0.0 | 0.0 | 0.00 | 0.00 | 0.00 | 69 | 1013.2 |
| 20260901204443 | 28 | 204 | 0.0 | 0.0 | 0.00 | 0.00 | 0.00 | 69 | 1013.1 |
| 20260901204431 | 27 | 203 | 0.0 | 0.0 | 0.00 | 0.00 | 0.00 | 69 | 1013.0 |
| 20260901204106 | 28 | 204 | 0.0 | 0.0 | 0.00 | 0.00 | 0.00 | 69 | 1013.0 |
| 20260901204008 | 28 | 204 | 0.0 | 0.0 | 0.00 | 0.00 | 0.00 | 69 | 1013.1 |
| 20260901203707 | 28 | 204 | 0.0 | 0.0 | 0.00 | 0.00 | 0.00 | 70 | 1013.1 |
| 20260901203605 | 28 | 203 | 0.0 | 0.0 | 0.00 | 0.00 | 0.00 | 70 | 1013.1 |
| 20260901203458 | 28 | 204 | 0.0 | 3.2 | 0.00 | 0.00 | 0.00 | 70 | 1013.2 |
| 20260901203434 | 28 | 204 | 0.0 | 0.0 | 0.00 | 0.00 | 0.00 | 70 | 1013.2 |
| 20260901203106 | 28 | 204 | 0.0 | 3.2 | 0.00 | 0.00 | 0.00 | 69 | 1013.2 |
| 20260901202906 | 28 | 204 | 0.0 | 3.2 | 0.00 | 0.00 | 0.00 | 67 | 1013.4 |
| 20260901202708 | 28 | 204 | 0.0 | 4.8 | 0.00 | 0.00 | 0.00 | 68 | 1013.4 |
| 20260901202608 | 28 | 204 | 0.0 | 4.8 | 0.00 | 0.00 | 0.00 | 65 | 1013.7 |
| 20260901202513 | 28 | 204 | 0.0 | 4.8 | 0.00 | 0.00 | 0.00 | 65 | 1013.6 |
| 20260901202507 | 28 | 204 | 0.0 | 4.8 | 0.00 | 0.00 | 0.00 | 64 | 1013.4 |
| 20260901202435 | 28 | 204 | 0.0 | 4.8 | 0.00 | 0.00 | 0.00 | 64 | 1013.6 |
| 20260901201906 | 28 | 204 | 0.0 | 4.8 | 0.00 | 0.00 | 0.00 | 64 | 1013.8 |
| 20260901201708 | 28 | 204 | 0.0 | 4.8 | 0.00 | 0.00 | 0.00 | 65 | 1013.8 |
| 20260901201505 | 27 | 204 | 0.0 | 4.8 | 0.00 | 0.00 | 0.00 | 64 | 1013.8 |
| 20260901201306 | 27 | 206 | 0.0 | 4.8 | 0.00 | 0.00 | 0.00 | 66 | 1013.8 |
| 20260901201217 | 27 | 204 | 0.0 | 4.8 | 0.00 | 0.00 | 0.00 | 66 | 1013.7 |
| 20260901201206 | 27 | 206 | 0.0 | 4.8 | 0.00 | 0.00 | 0.00 | 66 | 1013.7 |
| 20260901200906 | 27 | 206 | 0.0 | 4.8 | 0.00 | 0.00 | 0.00 | 68 | 1013.7 |
| 20260901200707 | 28 | 206 | 0.0 | 0.0 | 0.00 | 0.00 | 0.00 | 71 | 1013.7 |
| 20260901200508 | 28 | 204 | 0.0 | 0.0 | 0.00 | 0.00 | 0.00 | 70 | 1013.6 |